GFSNGP_sfc_wetblb_000.txt.gz
Wetbulb
53.25 54.61 54.95 54.56 53.84 53.00 51.17 53.03 49.95 52.87 53.52 56.52 57.74 59.36 57.86 59.62 69.54 69.06 68.96 69.14 69.15 69.43 70.39 71.01 71.29 71.78 71.43 71.41 70.80 71.73 70.51 70.45 70.48 69.42 71.68 70.15 70.91 70.63 70.30 69.88 69.44 68.41 66.83 67.58
52.83 54.63 54.30 53.06 54.55 53.79 52.45 52.28 52.82 53.15 52.68 57.44 57.56 59.15 57.97 61.03 67.37 67.65 68.10 67.88 68.73 70.14 70.13 69.94 70.53 70.91 71.63 71.45 71.15 71.82 70.08 70.49 70.56 70.85 69.69 69.06 70.36 69.48 69.90 69.33 69.01 68.19 67.40 66.57
50.30 53.64 53.12 50.79 53.35 54.66 53.87 54.53 54.11 53.95 55.97 57.56 57.69 59.57 58.25 66.55 66.67 66.72 67.01 67.36 67.25 67.74 68.11 68.70 68.62 69.69 69.72 71.22 72.03 72.14 69.16 70.74 68.81 70.35 69.25 69.16 68.94 69.18 69.01 67.87 67.57 66.64 63.67 63.13
51.16 53.68 45.46 54.46 59.30 57.92 57.15 55.97 56.36 61.19 59.17 57.53 56.17 61.65 62.43 69.15 67.28 66.57 66.43 66.05 66.46 66.50 66.91 66.59 66.61 66.66 67.22 67.64 68.42 70.46 70.27 68.54 68.56 69.04 68.46 68.18 68.46 67.19 67.45 66.33 65.04 63.45 62.00 60.85
49.70 49.36 52.10 55.52 56.85 54.85 56.71 54.83 58.67 61.20 62.15 59.74 62.70 64.28 65.47 67.45 67.58 66.36 65.80 65.29 64.78 64.70 64.23 63.10 62.09 62.65 64.44 65.97 66.83 68.16 69.75 69.46 67.73 67.11 67.40 65.85 66.31 66.03 64.74 63.28 60.31 59.45 58.76 58.15
52.02 47.54 45.08 54.58 59.52 62.02 60.92 52.31 63.41 63.28 64.24 62.99 63.65 58.84 60.81 65.13 65.22 64.47 64.24 63.81 61.87 60.87 59.96 59.21 58.93 60.19 60.46 63.04 63.82 64.80 63.82 65.27 63.76 63.37 60.61 59.28 60.47 59.09 58.92 59.11 57.97 55.85 54.74 54.23
49.65 48.79 52.08 59.53 61.48 62.09 50.99 55.34 63.87 64.77 65.34 64.27 62.43 63.42 64.76 64.81 64.09 63.87 62.97 59.79 60.03 58.65 57.46 56.77 56.45 55.42 53.60 53.84 53.23 55.08 56.79 57.70 56.89 56.10 55.08 54.95 53.74 54.36 54.19 52.43 51.63 51.01 50.87 50.38
51.68 49.32 46.64 60.89 59.56 54.74 62.31 64.82 65.56 64.68 63.89 62.34 62.59 62.99 63.64 63.43 62.32 61.13 59.50 58.72 57.73 56.29 54.91 54.93 54.38 52.47 51.23 50.49 52.83 53.76 53.80 53.72 53.38 52.70 53.36 52.06 51.01 50.47 49.55 48.64 47.50 46.80 46.20 46.40
55.19 54.61 62.53 65.40 64.34 66.16 65.99 64.75 65.63 64.63 63.92 63.38 62.19 62.00 62.09 60.89 59.44 58.34 57.53 56.56 56.27 54.93 53.53 53.40 53.18 52.06 49.93 50.79 51.40 51.01 50.72 50.71 50.81 51.22 51.70 51.44 49.85 49.19 47.99 48.15 46.74 45.91 45.56 45.22
55.24 57.77 59.88 62.61 64.62 65.33 65.67 64.65 65.28 65.18 63.95 63.22 61.71 61.76 60.05 58.75 58.13 56.72 56.26 55.17 55.11 54.12 53.12 52.42 52.52 52.15 51.46 51.84 51.99 51.31 50.66 50.72 51.38 51.43 52.00 52.31 51.91 51.73 49.07 48.66 46.94 46.19 45.46 45.43
53.59 57.81 56.57 61.41 63.73 64.71 64.56 64.92 64.23 64.15 63.60 62.65 62.10 60.78 58.50 57.59 56.88 56.66 55.39 54.81 54.18 53.64 54.16 53.83 53.70 53.37 53.81 53.17 52.60 51.11 50.34 48.52 47.25 47.21 45.70 45.31 45.96 46.66 45.98 45.58 46.09 45.84 45.55 44.87
51.57 58.88 58.49 58.65 64.45 64.65 63.43 62.74 63.29 61.97 61.32 61.86 61.81 60.24 58.81 56.94 56.64 55.57 54.58 54.46 54.20 54.46 54.60 54.99 55.26 54.83 55.42 56.18 55.68 53.37 50.29 48.27 45.79 45.08 44.80 45.12 43.98 41.87 42.56 42.11 40.36 39.08 39.08 42.60
57.58 61.41 61.42 60.78 60.65 60.56 61.79 61.38 61.60 61.45 61.26 60.12 60.78 59.89 58.02 56.70 56.38 54.75 54.75 54.46 54.44 55.28 55.99 56.25 56.15 55.33 56.48 56.80 56.63 53.81 52.13 52.73 51.20 50.21 48.92 47.45 46.14 44.05 41.20 41.02 40.83 39.36 38.60 38.65
59.07 57.77 57.87 58.01 58.13 61.57 61.28 61.61 60.58 61.75 61.37 60.99 59.80 58.84 58.06 56.72 55.75 55.28 55.12 56.07 56.75 57.28 56.72 55.86 56.39 56.12 57.39 58.05 57.21 55.17 53.32 49.36 51.09 50.64 50.16 50.54 49.28 47.78 46.73 46.03 44.15 42.90 40.06 41.08
55.69 57.65 58.57 56.23 61.88 61.89 62.15 60.98 59.19 58.97 59.57 59.22 59.59 58.85 57.81 56.80 55.61 56.13 57.15 57.42 57.15 56.70 55.66 54.84 55.68 55.62 57.43 57.14 55.60 54.34 53.71 53.57 54.38 54.29 53.75 53.34 53.42 52.26 51.02 50.35 48.33 45.88 43.98 40.73
56.86 53.93 57.18 52.76 57.79 60.98 61.03 60.31 58.76 57.92 59.14 59.28 58.44 58.00 57.30 56.96 56.41 55.07 54.77 54.56 53.28 53.19 55.60 57.08 56.99 57.75 58.35 57.39 57.05 56.48 55.57 54.17 54.07 53.55 52.74 53.10 52.90 51.85 51.35 51.68 51.49 48.77 47.14 46.85
55.53 55.31 57.71 59.17 59.46 60.06 59.36 59.37 59.06 57.82 57.84 58.08 58.52 58.37 58.12 56.02 53.70 53.25 53.59 54.31 54.87 57.40 59.52 59.18 58.67 60.39 60.11 60.42 59.05 56.01 54.46 54.17 53.74 54.58 53.77 52.79 52.33 51.76 51.69 50.97 50.60 48.72 46.88 43.62
57.93 58.73 59.89 60.57 60.64 59.62 59.33 59.19 58.75 58.37 57.54 58.05 57.81 56.81 55.21 53.71 52.24 53.20 54.26 55.41 56.40 58.98 59.13 59.61 59.98 60.46 60.54 58.98 59.64 57.36 55.70 54.83 54.68 54.00 53.94 53.22 52.58 52.11 51.78 50.70 50.26 48.31 46.20 43.66
57.88 57.94 58.59 60.18 61.37 60.54 59.86 58.50 58.04 58.82 58.62 56.96 54.69 53.38 53.12 52.22 52.22 52.89 54.31 55.42 56.44 57.69 59.22 60.05 58.28 60.40 60.93 58.69 58.18 56.78 55.98 55.19 53.53 53.83 53.56 50.53 52.15 51.67 51.00 50.80 49.74 48.50 47.86 45.23
57.38 57.83 58.58 60.73 61.67 60.57 59.03 57.53 58.34 57.70 57.77 54.64 51.49 50.72 50.61 50.75 53.79 53.14 55.22 56.98 57.04 57.57 59.80 59.50 60.63 60.30 60.57 59.03 57.40 55.92 55.73 54.14 52.89 53.11 52.76 52.36 51.58 51.11 51.43 46.90 48.35 48.68 47.96 46.71
57.08 58.42 59.97 59.97 59.92 60.09 59.33 57.77 56.71 55.82 55.59 52.23 49.41 50.79 51.71 53.26 54.36 56.07 55.94 54.80 56.66 57.90 58.60 56.48 59.35 58.38 58.07 56.71 55.00 53.54 53.95 54.45 53.02 53.17 52.05 51.87 51.41 51.42 51.37 49.31 48.73 47.90 47.28 46.67
59.49 59.78 59.60 59.30 57.90 57.02 55.07 55.55 54.24 52.98 53.61 54.28 54.64 54.40 54.10 54.03 55.15 55.66 57.51 54.73 54.03 49.56 56.04 56.73 54.92 51.70 52.70 51.74 52.76 52.50 52.96 53.21 52.70 52.98 53.41 52.60 51.92 51.25 50.65 50.10 48.84 48.34 47.65 47.11
59.70 58.35 57.15 56.20 53.97 52.82 52.92 52.10 52.55 53.37 53.01 53.73 53.75 54.18 54.29 55.32 56.14 53.15 51.32 52.95 53.28 50.62 53.38 53.32 48.89 51.05 50.58 52.83 52.69 53.31 52.52 52.29 51.67 51.59 51.93 52.28 51.48 51.11 50.47 49.92 49.18 48.26 47.57 47.19
56.86 56.19 54.38 53.06 52.47 51.01 49.71 50.46 51.46 51.65 51.82 51.68 52.08 54.03 54.89 53.91 52.24 51.94 51.29 48.58 47.23 49.83 50.23 48.76 49.13 48.23 46.33 50.85 51.67 52.09 51.68 51.33 50.98 50.86 51.32 45.21 51.13 50.77 50.39 49.52 47.94 47.18 47.51 45.50
53.29 52.06 50.85 50.28 49.50 48.94 48.87 49.37 49.73 50.06 50.68 51.48 53.32 55.24 55.24 56.50 53.60 51.17 51.50 50.20 47.36 48.47 52.27 45.59 47.01 47.05 49.16 50.59 51.49 52.02 51.41 50.80 50.54 50.51 50.68 50.71 50.10 49.61 49.62 48.83 47.79 47.81 47.69 47.73
49.51 49.12 49.42 49.82 49.43 49.73 49.96 50.40 49.52 50.76 52.17 52.10 53.68 53.36 53.22 52.85 51.69 52.03 52.41 49.60 50.69 50.14 52.16 50.80 50.66 49.96 49.77 51.03 51.75 51.24 50.75 50.51 49.66 49.78 48.80 49.59 49.78 49.48 48.97 48.55 48.13 47.79 47.75 47.65
50.36 49.15 50.70 50.99 52.11 51.68 51.55 51.94 51.88 52.55 54.23 54.41 52.40 51.99 52.61 53.47 52.99 52.30 50.41 51.67 52.02 53.17 53.28 52.61 51.72 49.84 50.31 50.79 50.74 50.65 50.30 50.39 46.33 49.68 49.59 49.24 48.92 48.92 48.85 48.63 48.69 48.84 48.55 48.52

GFSNGP_sfc_wetblb_003.txt.gz
Wetbulb
50.81 52.69 52.23 52.60 51.62 52.42 48.01 46.91 44.86 46.51 51.46 53.34 55.44 54.60 55.83 62.31 59.73 63.30 65.51 66.33 66.20 65.46 67.17 67.26 67.85 68.04 66.54 66.79 65.97 66.40 67.07 66.63 65.50 65.50 67.03 67.80 67.11 66.82 66.53 66.06 64.96 65.25 64.82 63.93
49.15 53.83 53.57 52.21 53.59 54.07 53.45 51.12 48.33 50.90 50.31 57.22 56.49 58.92 60.41 58.16 58.45 55.34 64.63 66.65 66.77 66.67 67.22 66.00 67.39 66.87 67.89 68.56 67.27 67.93 67.24 66.95 67.27 65.96 66.10 66.90 66.44 65.84 65.33 65.07 64.79 64.53 62.43 59.84
43.54 51.80 52.02 46.86 52.71 54.29 53.62 53.79 50.56 48.59 51.92 55.32 55.33 58.30 61.31 61.90 60.86 65.13 65.07 64.50 64.65 64.17 63.93 62.88 62.87 63.68 63.67 64.95 66.19 67.63 66.07 67.93 67.59 66.75 65.93 66.23 65.62 64.72 63.61 61.53 61.43 59.80 58.53 54.34
44.38 48.22 40.51 50.06 55.68 56.24 55.16 57.25 57.02 55.34 55.19 56.22 57.45 58.65 60.16 64.84 64.37 64.35 63.46 62.83 61.67 61.39 60.49 59.45 59.21 59.98 61.76 64.03 64.82 65.59 66.69 66.50 66.58 66.58 65.67 65.32 64.42 62.94 61.19 59.77 57.83 56.67 54.85 51.59
44.91 43.91 49.05 51.95 55.48 53.52 53.51 55.27 58.97 55.40 56.50 58.52 58.28 63.62 62.33 63.98 63.38 62.01 61.15 60.51 59.27 58.68 57.93 57.51 57.85 58.64 59.89 62.27 63.09 64.38 64.96 64.84 65.25 65.35 64.38 63.77 61.64 59.92 57.44 54.74 52.44 51.03 50.47 50.80
46.00 41.42 41.04 49.41 56.49 59.58 57.83 49.59 60.87 58.89 56.97 56.05 59.07 55.90 57.51 60.85 61.59 59.36 58.72 58.42 57.83 58.31 57.29 55.81 55.38 54.67 53.20 52.52 53.07 54.60 60.02 61.75 61.11 61.19 60.20 59.01 58.65 56.38 54.04 52.12 50.75 49.59 48.52 48.06
45.75 43.95 47.84 54.90 58.25 60.04 47.68 50.71 61.41 59.68 59.08 59.70 57.64 59.60 60.65 61.52 59.39 58.73 58.16 57.98 57.32 55.73 54.08 53.95 52.96 52.21 50.69 51.07 50.68 52.67 55.02 55.44 55.08 55.22 54.57 53.22 51.81 50.81 49.76 49.66 48.80 47.99 48.39 48.22
45.31 42.79 40.87 63.00 60.69 55.08 58.87 61.81 61.75 62.43 60.63 59.65 60.40 60.84 60.78 60.15 58.48 57.31 57.04 56.72 55.73 53.76 53.02 52.86 52.27 51.11 49.64 48.86 50.56 51.36 52.04 52.21 52.65 52.41 51.94 50.90 49.48 48.86 48.23 47.71 46.98 46.96 47.13 47.07
49.27 49.68 57.80 60.11 61.15 62.92 63.84 61.27 61.24 60.64 61.07 60.37 59.37 59.78 58.89 56.72 56.46 56.92 56.12 55.76 54.79 53.15 52.28 52.03 51.77 50.94 49.15 50.00 50.82 50.88 50.62 50.34 50.45 50.62 50.49 50.04 48.93 48.08 47.49 47.60 46.78 46.00 46.00 45.64
51.80 54.77 56.78 58.46 59.89 61.14 62.91 62.26 62.31 61.90 61.75 61.37 59.22 57.60 56.48 55.34 56.00 55.86 55.32 54.53 54.28 52.98 51.65 51.06 51.58 51.40 51.00 51.24 51.56 51.12 50.62 50.73 51.13 50.27 50.06 49.72 49.11 48.64 47.42 46.56 46.08 45.74 45.23 44.94
52.20 55.07 55.80 57.03 59.83 60.44 60.84 61.96 61.41 61.36 60.94 59.78 58.15 56.95 56.12 56.02 55.72 54.83 54.75 54.63 54.59 52.69 51.75 51.40 52.38 51.78 51.87 51.75 50.19 47.46 46.45 45.22 44.47 44.29 43.60 42.69 43.31 44.45 43.72 41.75 44.98 44.68 44.24 43.61
48.43 56.28 53.60 56.86 58.80 60.83 58.97 59.54 59.61 59.18 58.78 59.44 58.11 56.57 56.21 55.49 55.22 54.73 53.93 54.18 54.20 54.22 53.93 54.09 53.45 52.78 52.01 52.12 49.30 45.12 42.91 42.45 42.85 42.64 41.85 40.19 38.65 37.97 42.28 40.70 39.64 38.29 39.52 39.54
53.73 57.81 59.00 59.17 59.62 60.77 59.15 59.74 60.13 59.49 58.58 57.53 57.28 56.39 56.21 55.38 55.30 54.40 54.81 54.43 54.38 54.24 54.61 54.12 53.34 52.73 52.37 49.64 46.65 44.33 42.91 43.01 43.29 42.77 41.19 38.97 37.59 36.29 34.97 37.01 40.04 38.41 37.69 37.69
56.61 54.92 54.85 57.39 56.18 60.00 59.52 60.17 59.38 59.39 58.48 57.43 56.72 56.68 56.78 55.31 55.10 54.43 54.33 54.92 55.70 55.59 55.25 54.97 53.69 52.53 52.96 52.22 50.88 48.26 46.45 47.47 44.15 43.32 42.66 41.07 39.54 39.24 38.19 37.22 35.69 35.41 38.38 37.68
55.05 56.53 56.08 55.10 56.99 59.40 59.05 58.74 57.14 56.17 56.61 56.65 57.60 56.54 55.88 55.05 54.74 54.99 55.67 56.32 55.91 55.19 54.59 54.13 53.68 53.27 52.92 51.37 48.30 46.80 46.45 46.25 45.88 45.28 44.58 43.92 42.12 40.59 41.95 41.50 39.02 36.66 35.39 37.51
54.51 56.99 56.66 54.31 56.17 57.55 57.70 57.03 55.70 55.28 56.18 57.24 56.94 56.45 56.32 56.25 55.76 55.48 55.30 55.61 53.15 50.37 50.71 51.04 51.04 51.83 51.82 50.32 48.85 48.01 49.14 51.53 48.87 46.06 46.17 46.22 46.09 44.69 43.69 42.69 40.45 38.48 38.61 37.58
52.14 52.82 53.37 51.91 53.28 54.89 56.30 57.86 56.27 56.02 57.20 57.09 55.89 56.52 56.25 55.13 53.97 52.94 52.76 53.60 53.30 53.50 53.34 52.36 52.44 53.75 53.16 51.56 50.59 49.85 48.22 48.62 50.35 47.14 46.42 46.13 46.18 45.00 43.93 45.11 43.52 40.41 38.12 38.88
54.95 54.78 57.28 54.23 52.98 53.07 56.21 57.41 56.76 56.59 56.10 57.31 56.84 56.41 54.53 52.30 51.37 51.77 52.46 52.95 53.48 54.63 56.30 55.65 55.90 56.00 55.90 56.05 53.87 50.45 49.06 49.54 49.28 48.34 47.93 46.92 46.36 46.14 45.24 44.04 40.71 38.64 36.39 35.43
55.65 54.05 57.61 56.45 56.89 56.23 57.93 56.66 56.20 56.83 57.61 56.66 54.63 53.16 52.48 51.47 52.19 52.76 53.47 53.77 53.52 54.04 54.94 55.93 58.43 56.81 53.39 55.61 53.67 53.03 51.82 51.49 50.46 48.82 47.22 47.47 46.72 45.62 44.96 44.33 41.93 39.94 37.60 37.14
54.57 55.01 54.39 59.20 59.48 58.43 57.15 56.06 56.55 55.69 55.03 55.22 53.36 51.69 50.89 50.98 51.86 52.61 53.68 53.63 54.79 55.52 55.56 55.69 55.23 55.11 55.42 54.14 54.55 50.50 51.14 51.33 51.13 49.35 47.53 46.25 46.84 46.09 45.02 42.88 42.71 41.70 40.20 39.62
53.28 53.94 55.92 57.89 58.04 57.81 57.46 56.89 55.01 52.41 52.98 53.35 52.33 51.02 50.06 50.96 52.83 54.91 53.50 52.39 54.16 55.68 55.28 55.99 55.60 54.65 53.52 51.78 50.93 48.76 48.80 49.80 50.65 48.53 47.95 47.37 47.23 46.59 46.21 43.54 42.87 42.19 41.09 40.52
53.26 57.68 57.70 57.63 57.14 56.93 56.27 55.38 54.27 52.25 49.33 51.11 51.19 51.31 52.80 53.60 54.04 54.21 54.83 53.24 52.08 49.70 52.32 52.00 48.22 51.15 48.47 51.02 48.37 47.97 48.46 49.22 47.25 47.81 47.32 47.53 47.27 45.75 45.38 43.39 42.39 42.09 41.10 40.14
57.10 56.72 56.08 54.48 53.73 52.72 53.03 52.53 53.17 52.38 53.19 53.75 53.40 53.65 53.32 53.00 52.92 50.91 49.01 50.52 49.51 48.69 48.70 47.21 49.22 50.56 49.08 47.25 47.59 47.73 48.33 47.63 46.16 45.86 45.41 45.70 46.22 45.95 44.34 43.61 42.92 42.31 40.59 40.14
54.71 53.98 52.91 52.53 52.32 51.50 50.56 51.74 51.90 52.29 52.90 53.77 54.09 54.27 53.24 50.86 49.90 50.50 50.36 47.81 48.45 48.83 46.94 47.03 47.53 47.93 47.75 46.19 45.77 45.85 46.56 45.65 44.98 44.46 44.74 43.05 44.53 44.32 43.96 41.79 41.32 41.02 40.07 40.84
52.21 52.36 52.11 51.13 49.60 49.52 49.74 50.17 50.23 50.62 50.97 51.79 53.31 54.15 54.35 54.36 51.30 49.91 50.25 48.82 46.96 48.56 47.55 46.91 48.06 47.18 44.82 45.17 45.39 45.59 46.20 45.12 44.22 42.92 43.50 43.47 43.91 43.16 42.92 42.80 41.82 41.16 40.66 41.10
50.16 49.32 49.72 49.82 49.72 50.19 50.43 50.36 49.47 50.15 50.60 50.84 52.57 52.94 52.45 51.71 49.87 50.99 50.39 49.50 50.24 49.62 49.34 48.77 46.43 45.40 44.78 45.36 45.97 46.63 45.23 44.43 43.48 43.18 43.26 42.86 41.99 42.73 42.65 42.17 40.44 40.48 41.24 41.33
49.36 48.26 49.70 49.78 50.64 50.61 50.48 50.29 50.18 50.46 51.37 51.96 51.98 52.24 51.62 50.65 50.03 50.20 49.72 50.84 50.47 50.62 50.29 49.54 47.27 45.98 45.48 45.30 44.47 45.34 44.98 44.46 42.85 43.04 43.27 41.90 41.99 42.26 42.33 42.72 42.44 42.55 42.04 42.14

GFSNGP_sfc_wetblb_006.txt.gz
Wetbulb
46.34 50.23 51.29 50.69 50.14 51.01 45.14 44.86 42.76 44.31 49.30 52.62 53.70 53.82 55.89 57.22 57.05 60.90 58.64 60.64 64.06 64.38 65.26 65.83 67.04 65.76 64.36 64.00 64.88 66.17 66.25 64.87 64.51 64.71 65.46 66.08 65.29 64.75 63.90 63.93 63.88 63.05 62.45 62.05
45.35 50.83 51.74 50.69 52.11 52.80 53.05 52.97 46.95 50.52 49.53 53.76 54.48 56.70 57.28 56.30 58.52 59.51 60.10 62.18 65.96 64.90 63.43 62.75 63.06 63.31 64.28 64.44 65.21 65.55 67.47 65.80 66.26 66.13 66.55 65.27 64.77 63.90 63.43 62.43 60.45 58.58 56.06 56.30
40.68 48.22 49.09 44.60 49.30 52.19 52.56 53.52 51.23 46.77 51.17 56.03 54.68 57.34 58.24 56.73 58.07 58.03 59.67 62.00 62.59 60.85 60.05 59.09 58.49 59.97 60.42 62.48 64.10 65.03 66.45 66.61 66.17 66.65 65.79 64.39 63.66 61.55 59.91 58.00 56.30 53.48 51.88 51.73
40.81 42.97 36.87 47.64 53.07 53.83 53.49 57.76 55.44 53.07 54.10 55.71 56.98 58.52 59.76 59.89 57.44 58.69 61.16 61.53 59.66 58.38 57.28 56.28 56.86 57.20 59.35 62.12 62.97 63.91 64.99 65.02 65.13 65.17 64.43 63.41 61.22 58.91 56.16 55.31 54.33 52.78 50.90 49.13
41.46 39.86 45.19 50.04 52.68 52.21 51.41 54.39 56.91 55.14 56.54 57.75 60.28 60.83 58.38 61.75 61.87 60.80 60.08 58.64 57.26 56.48 55.24 55.36 55.01 55.23 55.09 55.57 57.16 59.75 62.50 64.19 65.48 64.46 62.88 60.32 57.52 54.80 52.03 50.50 48.83 47.80 48.47 49.47
42.87 39.54 38.59 47.15 54.02 57.34 55.02 48.43 58.53 56.65 60.52 60.47 61.04 54.88 57.04 58.88 58.52 57.60 57.36 56.72 55.28 55.45 54.97 52.71 53.37 53.66 53.33 53.00 53.55 53.96 56.72 59.85 64.42 63.37 61.43 57.56 55.30 52.94 50.69 49.12 48.17 47.80 47.60 48.75
42.60 41.38 45.23 56.51 60.38 58.71 43.87 45.28 58.44 57.37 56.63 58.44 56.93 57.21 58.50 58.00 57.10 57.18 55.48 54.70 54.70 54.08 52.74 52.38 52.38 52.16 50.99 50.83 50.60 52.64 54.76 54.96 54.84 55.04 54.44 52.84 51.13 50.60 49.39 48.06 47.38 47.29 47.96 48.63
41.92 39.80 39.55 58.28 59.58 52.91 54.93 59.58 59.35 58.81 58.72 58.65 58.51 57.84 57.06 56.44 55.62 55.02 53.99 53.92 53.67 52.33 51.64 51.96 51.68 50.99 49.70 49.28 51.22 52.00 51.62 51.41 51.47 51.85 52.23 51.07 49.54 49.13 49.00 48.57 48.06 47.58 47.38 47.28
44.52 44.00 55.60 57.27 58.70 59.75 61.89 59.23 59.34 58.55 59.28 59.63 58.13 56.42 55.24 53.95 53.90 53.93 53.77 53.44 53.04 51.83 50.97 51.14 51.14 50.76 49.41 50.21 51.28 51.27 50.86 50.38 50.20 50.27 50.31 49.78 48.88 48.52 48.04 48.30 47.40 46.73 46.55 46.03
48.24 51.83 54.30 57.36 58.16 60.68 61.05 60.36 60.83 60.86 60.19 59.03 55.66 54.70 54.01 53.46 52.89 53.57 53.60 52.90 52.50 51.49 50.45 50.02 51.01 50.88 50.95 51.54 51.83 50.78 49.55 48.59 48.85 48.38 48.07 48.36 48.52 48.45 47.33 46.65 45.56 45.93 45.72 45.30
48.91 51.61 54.40 56.60 58.77 55.95 59.01 60.93 60.93 60.34 58.94 57.26 55.66 53.83 53.66 53.13 52.99 53.62 53.67 53.28 52.69 51.21 50.70 50.53 51.53 51.09 50.48 48.97 47.79 45.84 45.28 45.30 44.54 44.26 43.59 42.95 42.48 42.09 41.96 40.80 44.55 45.14 43.20 43.45
46.52 53.08 52.41 53.65 56.84 59.53 58.47 58.38 58.88 58.46 57.40 58.06 56.47 54.27 54.03 53.01 54.25 54.05 53.71 52.99 51.59 51.53 52.06 52.03 51.46 50.42 49.27 47.75 45.72 43.16 42.13 42.67 42.09 40.31 38.60 38.20 37.95 36.69 41.54 40.62 40.24 39.05 38.76 38.05
52.01 57.35 56.94 58.40 58.94 60.10 58.94 58.38 58.84 58.31 57.54 55.72 54.99 54.57 53.69 53.85 54.17 53.81 54.20 53.91 53.53 53.34 53.12 52.45 51.20 51.90 49.88 45.51 41.90 40.79 39.99 39.20 39.14 37.94 35.91 34.76 34.12 34.66 33.92 36.93 39.76 38.24 37.76 37.41
54.40 55.31 54.18 56.71 55.93 58.98 58.35 58.33 57.50 57.26 56.50 55.65 54.91 54.81 54.38 54.44 54.20 54.20 53.77 54.34 54.45 54.22 52.47 50.71 48.92 46.26 45.72 43.86 41.90 41.01 40.86 44.10 38.99 37.42 36.33 35.61 36.09 38.22 37.93 36.04 32.40 33.06 36.65 36.51
54.05 54.82 53.59 53.56 57.06 57.60 56.99 57.14 55.73 55.17 55.21 54.91 56.15 54.72 55.04 54.01 53.81 54.13 54.95 55.22 55.06 53.47 52.66 51.41 50.10 48.09 49.67 48.56 45.56 43.66 43.21 41.50 40.12 38.91 37.26 37.26 35.97 36.55 36.99 35.74 34.34 33.26 32.84 35.88
51.47 53.14 55.08 52.76 53.44 55.85 55.80 55.57 54.42 53.95 54.75 55.61 55.38 55.35 55.54 55.24 54.93 54.75 55.70 54.71 52.32 52.68 51.44 51.00 50.04 50.45 49.89 46.76 44.86 43.67 43.43 46.37 44.70 41.92 40.33 38.80 38.31 38.58 39.09 36.81 35.16 34.90 34.73 34.39
50.02 50.01 51.02 51.35 54.16 54.64 54.85 55.10 55.53 55.07 55.49 55.15 55.52 55.76 55.72 55.22 54.36 53.70 54.97 54.67 53.01 51.98 50.96 49.91 50.84 50.49 50.00 48.00 46.26 46.72 46.30 46.86 47.80 43.89 44.54 43.16 42.67 42.25 42.25 39.89 37.34 36.71 36.99 37.54
51.21 51.98 53.22 51.73 54.38 54.18 54.81 55.92 54.91 55.40 55.09 55.57 55.33 55.70 54.37 53.89 52.59 52.63 52.85 52.41 51.57 50.89 51.75 51.90 52.35 52.28 50.91 49.78 48.30 48.28 46.17 46.64 46.26 45.93 45.53 44.51 43.69 42.74 43.52 41.09 40.54 39.34 35.86 35.37
51.74 52.26 54.04 53.39 53.23 54.00 54.59 54.75 55.06 55.53 56.00 55.43 54.77 53.34 53.97 52.95 53.09 51.80 52.11 51.79 52.26 52.27 53.25 54.78 56.36 54.64 53.15 54.05 52.87 50.76 48.48 49.66 48.54 46.94 46.29 46.49 45.79 44.60 41.84 40.66 38.77 36.70 34.79 34.92
51.38 53.14 56.63 54.45 55.11 56.35 55.87 54.56 55.27 55.30 56.45 55.64 54.64 52.66 51.57 52.37 52.08 52.23 52.94 52.88 53.95 54.34 54.97 55.54 54.27 52.41 49.83 52.23 52.74 48.72 49.98 50.12 49.33 48.46 46.04 45.74 44.92 43.59 43.44 41.37 39.68 37.76 36.05 35.87
50.74 50.76 55.20 55.48 56.91 56.71 56.81 55.90 55.04 53.71 53.25 53.02 51.69 50.93 50.89 51.65 53.76 53.83 52.96 52.25 53.49 54.87 54.32 54.15 53.93 52.71 48.75 48.24 46.03 45.12 45.92 47.21 48.54 48.13 46.36 44.90 44.75 44.35 43.61 41.01 42.05 40.28 37.89 37.76
48.56 49.48 55.12 55.82 55.84 55.13 54.60 53.96 52.76 52.26 51.13 50.55 51.20 51.29 52.32 53.34 53.54 53.25 53.70 53.08 52.49 50.16 51.13 46.71 47.39 49.21 48.09 49.07 45.34 45.09 46.05 46.90 47.26 46.98 46.02 45.50 45.34 44.94 45.03 42.23 40.15 39.67 40.16 37.79
53.25 54.21 55.11 55.84 54.91 52.34 52.81 50.60 49.69 50.28 49.57 49.63 50.57 52.41 52.96 52.67 52.96 51.28 49.28 49.81 48.43 47.89 47.05 46.53 48.91 49.22 48.80 45.56 43.94 44.40 45.52 45.20 43.88 43.91 43.45 43.95 45.73 46.35 45.36 44.62 42.33 40.96 38.80 38.25
51.32 51.19 50.86 51.80 52.26 51.52 50.70 52.45 53.47 53.76 53.86 53.21 52.46 52.79 52.51 51.48 50.61 51.64 50.92 49.11 48.29 46.50 46.11 46.20 47.75 47.42 47.11 45.48 43.82 43.16 43.25 44.55 43.02 42.61 42.51 41.89 42.06 42.32 43.00 42.74 40.66 39.57 38.60 37.98
50.13 49.76 49.86 50.11 49.69 49.47 50.34 51.42 52.06 52.56 52.57 52.55 52.76 53.14 53.46 53.09 51.05 49.97 48.94 47.85 46.95 47.02 47.08 47.20 48.67 46.94 44.96 43.91 42.99 43.76 43.88 42.99 42.63 41.92 41.82 41.23 40.96 40.60 43.27 43.13 41.38 40.15 38.27 38.61
49.47 49.19 49.60 50.32 50.36 50.61 50.83 51.31 50.64 51.66 51.86 51.65 52.26 52.50 51.94 50.96 50.60 50.62 49.98 48.80 49.35 49.02 49.21 48.60 46.99 46.13 44.03 43.56 44.06 43.65 43.18 42.69 41.16 41.22 41.18 40.89 40.29 40.08 40.34 39.79 39.40 39.28 38.65 39.33
49.42 48.38 50.02 50.02 50.61 50.74 50.97 50.70 50.54 50.49 51.11 51.66 51.42 52.04 51.85 50.28 49.58 49.64 48.74 49.71 49.89 50.07 49.86 48.74 47.82 46.21 44.80 44.19 43.13 42.37 42.06 41.63 40.93 41.54 41.47 40.50 40.21 40.21 40.18 40.12 39.96 39.74 38.96 39.05

GFSNGP_sfc_wetblb_009.txt.gz
Wetbulb
42.42 45.61 49.23 49.12 49.42 48.28 44.20 42.46 41.23 42.82 44.61 47.92 52.81 53.09 55.73 56.47 59.52 62.89 61.45 62.13 62.67 63.22 63.70 63.79 64.30 63.44 64.10 63.09 63.73 64.79 65.45 64.19 64.22 63.99 64.52 64.56 63.54 62.63 62.62 61.81 60.20 59.64 59.92 60.46
42.76 49.18 49.91 48.52 50.12 51.13 50.23 49.58 45.94 45.72 45.85 51.05 53.22 54.76 54.99 55.74 56.99 59.38 59.31 62.02 64.32 63.28 62.36 61.02 60.96 60.90 62.14 62.84 63.55 64.56 65.51 64.59 65.60 64.39 65.12 64.12 62.90 61.96 60.98 57.75 55.87 56.05 56.33 58.62
38.37 46.12 46.58 41.83 47.83 50.04 50.28 52.21 50.78 47.22 48.79 52.71 52.75 53.82 54.33 54.99 57.05 58.19 60.07 61.96 61.57 60.27 59.25 57.67 57.63 58.60 59.26 61.47 62.79 63.64 64.67 66.21 65.52 65.30 63.85 63.30 62.17 59.82 57.03 54.27 52.44 51.75 53.35 55.59
39.34 40.75 35.02 44.37 50.78 52.52 53.74 56.30 54.63 52.20 53.03 53.86 54.31 56.82 56.44 57.86 56.45 58.50 61.47 60.40 59.62 58.01 56.95 55.47 55.27 55.81 56.67 60.13 60.43 60.93 62.62 64.43 64.66 64.26 63.23 61.47 59.24 56.47 53.93 51.94 50.17 48.92 49.10 50.54
39.76 37.88 42.62 47.83 50.42 50.67 48.69 51.90 53.55 53.06 55.64 56.28 59.51 58.98 57.22 59.67 59.97 59.33 58.73 57.87 57.01 56.41 54.66 53.98 53.76 54.05 54.50 55.41 57.23 58.66 59.21 63.23 64.72 63.73 62.16 59.07 54.94 51.45 49.82 48.58 47.25 46.94 49.28 51.06
41.39 38.51 37.34 44.59 55.02 59.93 55.23 46.01 54.64 55.60 57.26 57.78 59.06 53.66 55.43 59.34 58.89 57.65 57.01 56.43 55.33 54.81 53.17 52.48 51.74 51.54 53.68 53.35 53.87 53.79 55.79 56.57 64.30 62.57 59.49 55.43 53.36 50.24 48.74 48.60 47.01 47.67 48.05 49.57
41.27 40.09 43.97 54.35 57.78 58.94 43.45 44.36 55.42 59.04 58.30 59.11 55.79 55.51 57.33 57.39 56.67 56.05 55.09 54.61 54.50 53.46 52.31 51.66 50.67 50.54 51.34 51.36 50.71 52.31 53.71 54.09 54.26 56.89 55.53 52.99 51.85 50.64 49.84 47.71 47.17 47.68 47.34 48.62
39.92 39.07 39.25 56.94 56.67 49.55 52.64 57.89 56.54 57.36 57.54 56.63 57.05 57.05 56.55 55.25 54.35 54.45 54.13 53.88 53.73 52.85 51.10 51.14 51.61 51.22 50.06 49.63 51.39 51.68 51.30 50.85 50.89 52.57 52.54 51.45 49.48 49.79 49.65 49.40 48.32 48.06 48.02 47.77
41.90 43.48 53.95 57.63 58.85 58.47 59.29 57.98 56.69 57.48 58.07 57.79 56.01 55.47 55.27 54.79 54.23 53.73 53.08 52.66 52.28 51.16 50.42 50.85 51.13 50.92 49.57 50.76 51.70 51.28 50.60 49.67 49.67 50.19 50.55 50.37 49.47 49.00 48.55 49.11 48.35 47.48 47.23 46.90
46.41 51.12 54.82 56.84 57.59 58.74 59.53 59.34 59.68 59.71 58.78 57.59 55.29 54.96 53.61 53.28 53.37 52.78 52.75 51.99 51.90 50.92 49.92 49.61 50.81 51.02 51.01 50.36 50.19 48.61 47.26 47.15 48.08 47.90 47.59 48.11 48.20 48.40 47.97 47.30 46.74 46.63 46.25 45.63
46.94 50.03 53.66 56.17 56.36 55.87 59.27 60.16 59.73 58.35 57.57 56.16 54.90 53.83 53.45 53.23 53.08 52.94 52.77 52.34 51.88 50.66 50.20 50.39 50.78 49.05 48.11 47.78 47.66 46.26 46.02 45.73 45.39 45.21 44.50 43.33 42.46 43.73 44.38 44.08 45.87 45.51 44.92 44.82
45.70 51.11 50.81 52.46 56.17 58.82 57.61 57.92 57.45 56.60 55.59 55.87 55.20 53.75 53.44 53.16 53.49 53.32 52.53 51.66 49.95 50.91 50.86 50.37 48.81 46.33 45.98 46.18 46.39 45.25 43.38 42.50 41.51 41.02 40.48 40.08 39.18 38.44 41.69 41.68 40.25 38.97 38.81 40.15
51.48 54.27 54.22 55.29 57.23 58.61 56.65 58.56 58.17 56.92 55.61 53.95 54.02 53.88 53.40 52.67 52.84 53.54 52.20 50.44 50.72 51.73 51.51 50.35 49.72 47.03 45.37 42.53 41.62 39.85 37.86 36.72 36.78 36.33 36.86 35.39 33.72 34.35 34.05 36.20 39.49 38.14 37.34 37.39
55.45 55.45 53.48 55.73 53.76 58.45 58.41 57.60 56.75 56.73 55.12 55.17 53.96 53.21 52.75 52.58 53.12 53.70 53.15 53.31 53.59 52.59 51.86 51.95 50.02 46.03 42.12 40.71 39.50 38.21 37.78 40.44 34.64 34.07 33.90 33.26 33.67 33.58 33.61 33.10 32.83 32.95 35.99 36.38
54.67 53.67 52.71 51.66 54.09 55.97 56.56 56.79 54.48 53.41 53.79 53.32 53.76 53.18 53.49 53.07 53.30 53.52 54.23 54.39 53.72 51.00 48.97 47.03 44.53 42.59 42.16 41.07 40.16 39.41 38.70 37.04 35.75 34.82 34.08 34.85 34.36 34.13 33.13 33.09 33.05 32.95 32.68 35.38
51.43 52.88 53.84 52.66 54.51 54.49 54.88 55.51 53.92 52.81 53.44 53.23 52.69 52.66 53.84 54.43 54.37 54.27 54.64 54.19 50.91 49.04 48.33 46.24 44.00 43.98 46.01 45.10 42.87 41.39 39.86 42.43 39.47 36.37 36.64 35.57 36.31 36.34 34.53 32.92 33.51 34.31 34.47 34.60
47.96 47.23 50.44 50.62 52.80 53.70 53.89 54.13 54.47 54.03 53.82 53.53 53.42 53.22 53.65 52.91 52.99 52.92 54.15 52.41 51.65 51.19 50.65 49.95 49.24 49.40 48.49 45.42 44.24 42.58 41.46 41.91 43.36 39.42 38.27 37.26 38.07 38.66 37.52 35.39 35.14 35.02 35.13 35.67
50.03 50.55 52.44 51.87 52.53 53.37 53.23 53.93 54.08 53.76 52.95 53.51 53.64 54.09 53.83 52.85 52.12 52.86 51.27 50.91 50.27 49.19 49.78 49.94 49.26 49.71 47.90 45.99 44.50 44.42 44.56 43.74 44.48 42.28 41.74 41.65 41.66 41.58 40.33 38.33 37.02 37.36 36.75 36.83
49.26 50.18 52.11 52.63 52.18 53.97 53.88 53.44 54.08 54.68 53.74 54.22 53.54 52.54 53.22 52.54 51.53 51.24 51.22 48.80 48.73 48.40 50.01 51.73 54.27 52.83 48.75 49.88 48.59 47.23 46.08 46.42 45.20 44.44 43.88 44.38 43.75 42.82 42.91 41.62 40.96 40.45 38.36 36.33
49.74 50.64 52.53 52.27 53.62 54.84 54.22 54.58 54.99 54.37 54.64 53.74 51.90 51.05 50.93 50.85 49.97 51.42 49.61 49.04 52.07 53.57 52.94 52.35 52.45 50.63 50.92 50.91 55.34 49.24 50.31 48.64 46.75 45.27 44.56 43.90 43.63 42.78 42.26 41.15 41.51 39.68 36.58 35.76
50.53 50.73 53.21 52.22 52.69 55.34 55.71 54.98 54.62 54.51 53.92 53.35 51.74 50.78 51.11 50.68 52.21 52.64 50.64 50.46 53.22 53.39 53.84 53.92 52.59 52.00 49.49 47.88 46.94 46.02 45.51 45.33 46.80 45.73 44.57 44.14 43.85 43.71 43.29 42.48 41.58 40.09 37.23 36.83
50.37 48.90 52.77 53.70 52.74 51.79 52.56 53.16 53.37 53.16 52.69 51.28 52.77 51.83 51.94 52.52 52.91 52.02 53.68 52.91 51.56 49.61 49.61 49.58 48.84 50.02 49.12 48.69 44.54 43.83 45.21 45.09 45.71 45.36 44.80 44.84 44.61 43.88 43.46 42.86 40.79 41.22 39.36 37.11
48.90 53.08 53.96 54.02 52.58 50.88 51.91 52.24 52.45 51.85 50.36 50.12 51.36 52.53 52.80 52.83 52.78 51.26 48.54 48.62 49.15 48.34 47.84 48.16 48.95 49.08 48.40 45.17 45.15 43.38 43.99 44.39 43.93 45.45 45.18 44.94 45.08 45.48 45.96 44.72 42.89 41.10 40.08 39.02
51.94 52.20 51.65 52.14 52.88 51.45 50.73 51.71 52.15 51.98 52.12 52.48 52.92 53.24 52.66 51.20 50.58 51.40 50.42 48.67 47.15 46.55 46.25 46.41 46.50 46.90 46.92 45.94 43.20 43.38 43.16 43.12 42.61 41.47 42.07 40.90 42.01 41.71 42.86 45.01 45.08 43.21 41.26 38.63
51.10 51.57 52.14 51.61 51.04 51.17 52.37 52.51 52.31 52.23 52.09 52.08 52.20 52.35 52.18 52.21 51.20 49.85 50.71 49.80 46.48 46.65 47.10 46.78 46.85 46.47 45.09 44.82 44.57 44.39 43.22 42.77 41.33 40.46 40.57 40.49 40.27 40.43 40.52 40.04 40.25 40.23 39.73 39.52
49.90 49.97 50.49 51.09 51.18 51.94 52.26 52.43 51.27 51.80 51.72 51.29 51.71 51.71 51.55 51.89 50.88 50.68 50.28 48.52 49.12 48.05 48.53 48.18 47.58 47.30 45.91 44.86 44.07 43.48 42.08 41.54 40.68 40.34 39.75 39.87 39.47 38.95 39.70 40.01 41.69 41.99 41.01 40.54
49.93 48.45 50.28 50.19 51.22 51.54 51.74 51.71 51.23 50.91 51.17 51.38 51.13 51.91 51.05 50.33 50.05 50.01 48.44 49.84 49.58 49.95 50.67 50.49 49.23 47.99 47.77 45.71 43.25 42.26 41.65 41.23 40.29 40.89 40.63 40.09 39.29 38.82 38.65 38.82 39.07 39.06 38.16 37.63

GFSNGP_sfc_wetblb_015.txt.gz
Wetbulb
49.71 48.67 49.16 50.85 52.35 49.21 50.79 52.90 50.32 52.68 51.09 57.27 58.54 59.34 61.89 65.48 66.35 64.98 63.64 66.76 65.48 65.12 66.69 68.81 69.21 69.41 69.25 70.28 70.53 70.50 70.32 69.91 70.25 69.50 69.74 69.13 67.11 67.14 67.22 67.04 66.68 66.97 66.81 66.50
50.01 51.55 49.10 48.55 51.13 52.72 51.99 51.13 51.42 52.39 53.27 57.98 58.38 60.36 61.83 64.17 65.00 65.23 64.56 66.06 66.57 66.83 67.12 67.99 68.26 68.35 68.44 68.87 69.55 69.95 69.79 69.84 70.85 70.01 69.45 68.32 65.12 66.52 66.20 65.72 65.58 65.76 65.03 64.66
47.07 50.70 51.13 48.33 51.97 53.28 54.34 55.30 55.08 52.64 57.36 58.44 58.71 59.11 62.07 64.07 65.26 65.33 65.58 65.61 65.94 65.67 64.96 64.88 66.01 65.71 65.25 65.71 67.48 68.88 69.18 70.01 70.38 70.06 69.15 67.17 64.68 65.60 64.95 63.69 63.05 62.50 63.16 63.23
48.53 49.97 43.07 50.89 55.12 55.78 55.24 57.65 58.33 59.51 58.82 58.50 59.04 60.00 61.93 64.61 65.84 65.70 65.73 63.86 63.02 61.54 61.66 62.15 62.55 63.37 64.10 64.53 65.72 64.83 64.90 67.97 70.26 69.38 68.27 64.99 65.19 64.38 63.14 63.50 61.67 59.78 59.55 59.41
47.43 47.23 48.90 52.22 56.34 57.21 56.10 56.08 60.15 58.58 58.28 58.53 60.14 60.84 59.83 61.84 65.19 65.26 64.89 62.49 61.06 61.24 60.30 58.89 60.21 60.16 62.11 62.75 63.31 62.30 61.84 62.68 65.45 67.74 65.83 64.32 63.64 61.99 61.56 61.35 61.31 59.38 57.99 57.90
49.01 45.34 42.95 52.03 58.50 60.73 60.30 51.65 59.46 59.82 59.79 59.33 59.46 56.00 59.30 59.06 60.58 59.55 58.84 58.57 58.59 58.89 58.54 57.68 57.38 58.50 58.92 58.71 59.69 58.13 58.55 58.49 59.78 65.83 63.92 62.69 61.29 59.76 60.03 60.74 59.88 59.05 55.42 54.95
48.71 48.39 50.73 54.71 59.19 60.30 50.50 52.55 61.11 60.93 61.48 60.76 58.73 59.52 60.32 58.61 57.73 57.54 57.08 57.30 57.94 57.87 57.04 56.50 56.55 57.13 55.99 55.10 54.30 54.84 55.40 55.83 56.13 57.11 57.89 57.49 57.20 58.36 57.56 57.78 56.85 53.72 53.08 52.99
47.79 46.92 45.64 58.64 59.37 54.56 58.82 63.08 61.91 62.32 62.51 61.58 58.60 57.29 56.77 56.71 56.11 55.97 55.57 56.09 57.05 55.34 54.98 55.61 56.12 56.15 54.39 53.32 53.60 54.06 54.24 53.83 53.39 52.84 52.84 52.72 52.87 53.50 53.70 55.83 55.46 53.39 51.60 49.40
49.15 50.19 57.11 59.70 60.13 61.72 61.52 60.25 62.41 62.92 62.65 61.37 57.98 56.35 56.11 55.55 55.49 55.65 55.43 55.36 56.19 54.40 54.43 54.39 54.86 55.36 54.04 52.95 53.62 52.90 52.21 51.70 51.88 51.70 51.66 51.79 51.43 51.55 50.74 52.00 50.94 50.26 48.49 48.69
53.64 55.71 57.30 59.36 61.13 61.43 62.36 62.96 63.66 63.86 63.19 61.23 58.19 56.60 55.37 54.93 55.00 55.33 55.62 55.23 56.23 55.92 54.47 53.07 54.11 53.72 53.19 52.64 51.95 51.49 50.45 50.58 50.98 50.51 50.37 50.62 50.58 51.42 51.22 49.96 48.96 48.22 48.57 48.73
54.31 56.75 57.93 59.41 60.14 61.19 61.91 62.02 61.99 63.07 62.15 59.88 57.09 55.63 56.11 55.87 56.02 56.43 56.44 56.45 56.16 54.73 53.61 52.68 52.82 52.38 52.66 52.12 52.33 50.48 50.16 49.57 48.98 48.64 47.86 45.85 44.19 46.41 48.22 48.40 49.47 49.09 49.27 50.62
53.37 56.65 57.75 57.96 60.01 61.30 61.43 60.61 60.79 60.92 58.62 58.64 58.21 57.18 57.23 57.08 57.45 57.20 56.41 56.10 54.29 53.55 53.16 51.93 51.85 52.29 52.46 51.81 51.87 52.59 51.58 50.40 49.61 47.55 45.79 44.98 44.34 42.09 41.97 41.92 41.00 40.33 41.44 46.14
55.20 58.21 59.30 60.54 61.21 61.68 60.96 60.93 60.88 60.79 59.63 57.07 57.55 57.20 58.72 57.35 57.67 55.40 56.36 54.65 53.84 53.30 53.89 54.11 53.39 52.54 52.70 53.12 53.67 53.39 52.49 51.20 48.68 48.68 47.51 43.84 47.25 45.91 42.55 40.97 39.76 38.56 38.18 38.44
57.54 58.30 57.65 59.03 58.51 61.06 61.53 60.90 59.43 60.39 60.18 58.80 57.17 58.10 58.43 57.66 56.47 56.64 55.71 54.34 54.61 55.31 54.65 54.29 53.13 51.71 51.89 52.50 52.38 50.69 48.33 44.79 46.87 46.01 45.88 45.87 46.25 46.74 48.30 48.39 47.84 46.94 39.27 40.60
55.10 58.12 58.00 59.02 60.15 60.09 60.55 60.28 59.80 59.09 58.42 58.00 58.57 56.83 56.89 56.31 56.75 56.76 57.01 56.71 56.63 54.87 54.64 53.39 52.14 50.38 51.52 51.17 49.13 47.65 46.99 46.59 46.62 46.10 46.00 45.35 45.83 45.82 46.26 46.69 46.97 46.62 46.64 42.20
53.65 56.93 57.67 57.49 58.05 59.13 59.58 57.46 58.58 58.55 58.79 57.90 57.40 57.34 57.10 57.24 57.30 56.86 57.39 56.84 55.17 55.26 54.83 53.00 51.05 50.49 50.58 49.63 48.60 48.27 47.03 44.39 47.19 47.47 46.61 46.68 46.48 46.76 46.83 46.80 46.61 46.97 47.34 47.53
52.82 54.81 55.76 55.26 56.84 58.55 59.17 60.06 59.79 59.48 59.29 58.41 58.03 57.66 57.39 57.22 57.22 57.13 57.05 56.84 57.11 56.31 53.36 51.52 50.12 50.52 50.11 50.05 50.27 49.81 49.43 48.02 46.18 49.35 49.39 49.12 48.58 47.93 47.62 47.63 47.18 46.97 47.38 46.47
55.29 55.26 55.09 54.04 54.96 56.04 58.79 59.93 60.05 59.79 59.01 59.14 58.45 57.76 57.66 57.05 56.96 56.78 56.47 56.90 55.27 53.73 52.03 51.68 51.26 51.33 51.82 51.68 51.34 50.49 50.45 50.47 50.33 51.05 50.48 49.85 50.01 50.18 48.86 48.06 47.62 47.23 47.44 46.42
54.63 55.15 55.70 56.09 55.60 55.83 57.91 60.23 60.55 60.52 60.08 58.94 58.18 57.66 58.11 58.19 58.02 56.39 55.55 55.16 53.38 52.27 52.44 53.56 51.76 52.72 54.70 55.28 53.89 53.18 52.55 52.11 51.97 51.77 51.13 48.99 49.11 49.78 49.59 49.19 48.90 48.51 48.26 47.37
53.43 55.33 56.03 56.40 56.48 56.34 57.64 59.76 60.68 59.85 59.83 59.00 58.71 57.94 57.33 57.53 57.81 55.30 56.46 55.52 56.29 55.75 57.46 56.81 56.63 56.70 56.54 55.88 52.90 53.93 53.60 53.58 53.40 53.76 53.87 53.16 52.70 52.02 51.66 46.33 50.12 50.28 50.01 49.42
53.07 54.22 55.12 55.69 55.73 56.87 58.11 59.35 59.48 59.30 59.22 59.19 58.24 57.62 57.75 58.07 56.45 57.33 56.45 54.96 57.41 57.75 57.70 55.89 56.13 56.09 56.48 56.09 54.90 54.66 53.61 53.64 54.45 54.91 53.75 53.06 53.27 52.75 52.68 52.29 51.80 50.79 50.81 50.69
53.00 52.68 54.22 55.24 56.23 57.92 58.79 59.73 59.92 59.45 58.67 58.68 58.79 58.29 57.58 57.18 57.38 57.17 58.17 56.75 56.26 51.39 55.02 55.64 55.69 53.94 52.25 50.81 53.61 53.60 54.38 53.95 51.68 52.99 53.00 53.06 52.57 52.20 51.98 51.71 51.32 51.81 51.86 51.56
52.35 53.14 55.21 56.68 55.22 54.80 56.43 57.12 57.63 57.98 57.24 56.90 56.39 57.17 57.32 57.15 56.76 55.16 53.94 54.45 55.34 50.82 52.61 52.10 49.18 48.73 48.46 52.03 53.80 53.22 52.37 50.28 49.95 50.87 50.56 52.25 52.49 52.07 52.39 52.13 52.03 52.26 52.24 52.29
53.15 53.82 53.47 53.80 54.97 54.78 53.06 54.88 55.89 56.51 56.69 57.24 56.85 57.12 55.59 52.82 52.11 53.96 52.31 49.01 47.04 49.29 48.47 48.68 47.88 46.96 46.21 48.98 49.79 48.83 49.06 50.06 48.63 48.48 50.57 43.02 51.33 51.05 50.78 50.77 50.63 50.75 51.13 50.13
53.32 53.88 54.72 53.58 52.45 51.77 52.32 53.79 53.89 54.33 53.57 53.47 53.63 54.19 54.30 54.60 52.25 49.60 48.92 48.00 46.64 48.43 49.55 47.62 47.03 46.91 48.85 48.74 49.24 48.63 46.95 46.47 47.42 48.69 50.50 50.60 50.18 49.74 50.04 50.34 50.15 50.12 50.06 50.50
53.11 52.69 52.69 53.75 53.47 53.79 53.23 52.54 52.01 52.01 51.78 51.07 51.49 52.26 52.27 51.62 50.84 50.64 50.76 49.77 50.44 49.22 51.21 52.34 53.30 52.83 51.69 50.76 49.74 49.64 50.08 50.74 50.22 50.72 49.42 50.56 50.62 50.41 50.23 50.10 49.96 50.26 50.34 50.48
52.04 49.83 51.81 51.55 52.33 52.68 52.41 52.10 51.34 50.87 51.68 51.57 50.78 51.76 51.92 51.81 51.20 51.15 50.01 51.58 51.56 51.52 51.86 52.43 52.70 52.29 53.01 52.12 50.15 50.30 50.55 49.50 44.72 48.12 49.61 49.93 50.01 49.94 49.78 49.66 49.67 49.75 49.81 49.79

GFSNGP_sfc_wetblb_021.txt.gz
Wetbulb
54.17 53.21 53.23 53.10 52.70 53.38 52.71 53.89 51.90 53.83 53.03 54.61 61.84 63.04 65.76 67.70 69.76 69.77 70.17 70.12 71.30 71.04 70.41 70.04 70.33 71.99 72.62 72.63 72.81 73.19 72.73 72.38 72.52 73.02 72.82 72.57 71.59 70.95 70.18 69.74 69.43 69.11 68.70 68.79
52.87 53.75 52.70 51.45 52.54 52.91 53.72 54.12 54.79 55.33 54.91 54.17 64.52 65.89 64.46 67.81 69.19 68.82 69.31 69.90 71.18 70.09 68.96 69.53 71.54 72.28 72.34 72.92 73.21 73.29 72.23 71.77 73.40 72.98 72.59 72.11 71.39 69.65 69.50 68.27 68.40 68.56 67.84 66.97
50.13 52.70 52.27 50.28 52.78 52.84 53.88 56.17 55.86 53.59 57.59 62.32 61.85 64.79 65.15 67.45 69.53 68.79 69.01 70.11 70.69 69.33 69.66 71.32 71.71 72.71 72.49 73.05 74.11 73.16 73.21 73.12 73.02 72.99 72.49 71.98 71.55 69.91 67.98 67.34 67.37 67.53 66.97 66.98
50.61 52.59 45.60 54.01 57.38 56.97 54.73 55.56 57.06 58.11 59.36 62.53 65.22 66.70 67.32 68.88 70.29 69.99 69.87 70.87 69.89 69.57 70.85 72.68 72.96 72.51 72.52 72.24 72.35 72.22 71.88 71.69 72.04 72.55 72.31 72.58 71.16 69.57 68.16 66.76 66.12 65.92 65.64 65.61
48.57 47.94 51.75 53.46 55.81 55.71 54.38 54.73 58.30 57.92 60.38 64.00 65.73 66.59 66.77 69.89 70.81 71.53 71.26 71.74 70.96 71.26 71.41 70.95 70.81 70.92 71.56 71.17 71.81 71.21 69.35 68.49 67.80 69.49 70.70 69.79 69.88 68.23 67.78 66.10 65.47 65.25 65.55 64.74
50.15 46.23 44.95 53.80 57.96 61.26 59.31 53.55 60.86 61.93 62.48 63.28 64.18 56.59 64.94 69.89 72.06 72.22 72.29 71.89 70.51 68.77 68.72 67.74 66.85 68.92 69.13 68.41 68.22 66.18 65.01 65.12 65.06 64.76 67.39 68.15 68.18 67.15 67.48 65.81 65.42 64.45 64.18 63.63
47.83 47.58 49.96 57.01 62.54 63.45 52.10 56.45 66.56 66.53 65.98 64.38 63.73 67.36 69.06 69.90 69.43 69.75 69.56 68.72 68.14 68.22 67.19 66.44 66.22 66.26 65.86 65.14 62.43 62.87 62.89 62.41 61.75 59.76 59.72 64.16 64.92 65.68 65.64 65.57 64.18 63.72 61.26 61.18
48.81 47.07 45.04 60.62 61.19 56.98 63.96 67.00 67.70 68.02 67.73 68.34 68.19 66.37 66.18 65.28 64.42 65.12 65.70 66.20 67.95 66.31 65.10 65.15 65.33 65.29 63.23 60.21 60.63 61.20 60.65 59.77 58.14 57.20 56.33 57.21 58.55 59.52 59.38 62.80 62.29 61.03 60.04 60.01
52.74 51.30 63.35 64.17 65.27 66.84 67.55 66.75 67.58 68.10 68.05 68.34 65.91 64.59 61.69 61.18 62.64 64.03 65.58 66.59 66.90 64.84 62.17 62.14 62.78 63.22 60.82 59.41 60.10 59.73 58.74 57.87 56.54 55.22 54.40 54.39 54.44 55.26 54.34 54.52 57.47 55.85 50.64 50.62
55.57 57.86 61.66 63.22 65.86 67.05 67.50 67.52 68.50 68.67 68.42 67.19 65.72 63.76 61.68 61.06 61.63 62.19 64.02 64.44 64.35 64.03 62.12 60.58 61.24 61.09 60.66 60.26 60.54 59.72 57.44 55.37 54.19 52.84 51.59 51.94 52.88 53.46 52.45 51.78 51.67 49.81 50.10 51.98
55.90 61.35 61.77 64.10 64.95 65.81 66.58 67.69 67.95 68.92 68.33 67.66 66.12 63.23 62.50 60.67 61.15 61.53 62.21 62.76 62.27 61.41 60.77 58.60 59.89 60.04 60.42 60.22 60.31 59.14 58.48 56.87 55.20 52.57 49.78 47.88 46.57 48.32 50.49 48.60 50.82 52.31 52.96 53.19
54.89 61.08 61.25 61.93 64.94 65.94 65.62 66.03 67.11 66.37 65.41 66.52 65.30 63.10 61.74 61.00 61.31 61.53 60.82 61.25 60.71 60.01 59.50 58.74 59.29 59.12 59.74 60.32 60.35 60.03 58.46 57.58 55.59 54.47 53.40 52.45 50.61 48.24 43.43 43.43 42.69 41.86 43.38 47.50
57.55 61.60 62.64 63.86 64.62 65.49 65.18 65.44 66.60 66.12 65.17 63.98 63.24 62.22 62.06 60.83 61.59 59.59 60.38 59.27 58.78 58.76 59.12 59.95 59.41 59.62 60.03 60.76 60.90 59.68 57.88 57.70 56.55 56.59 56.76 55.69 54.31 52.70 49.35 44.26 40.85 39.20 39.35 39.97
59.96 60.37 60.62 61.08 61.53 64.41 65.22 65.32 64.38 65.42 63.96 62.74 62.53 62.45 61.80 61.74 60.68 60.38 59.16 59.55 59.96 60.43 60.24 59.80 59.62 58.93 60.14 60.79 60.61 60.37 59.58 50.32 58.83 57.58 56.98 56.86 57.48 57.53 56.82 55.22 53.15 50.79 40.96 44.94
58.62 59.74 60.06 62.10 62.45 63.16 64.20 64.21 63.80 62.87 62.18 61.98 62.71 61.88 61.54 61.24 60.93 59.84 60.40 61.26 60.84 60.50 60.41 60.29 59.67 59.65 60.87 60.89 57.84 55.76 54.93 54.38 54.32 54.04 53.84 53.18 53.99 53.83 53.63 53.88 53.32 52.44 50.59 44.76
57.39 58.69 59.47 58.75 59.12 60.68 61.21 62.21 62.73 62.51 61.73 61.77 62.27 62.22 63.67 63.76 62.48 60.85 60.12 60.60 59.41 58.73 59.54 59.80 59.95 59.84 57.53 56.73 56.72 55.60 54.62 53.07 54.02 54.25 54.18 54.61 54.69 53.96 53.11 52.88 53.39 52.78 52.10 51.81
55.51 55.32 56.50 57.73 58.94 57.63 58.35 59.69 62.48 62.78 63.05 63.02 62.57 62.55 62.54 62.12 60.98 59.51 58.98 59.86 60.07 59.77 60.69 60.43 58.05 57.05 57.07 57.50 56.58 54.94 54.44 54.62 50.53 55.70 55.40 55.23 54.99 54.54 54.18 53.92 53.30 52.84 53.43 48.55
58.28 58.45 58.74 59.05 57.25 58.15 56.75 57.73 58.56 63.48 62.96 63.46 61.35 60.69 61.14 60.55 59.31 59.37 59.74 59.75 59.65 59.77 59.38 58.49 57.25 57.06 57.53 57.49 57.32 56.37 55.90 55.61 56.98 55.98 56.24 56.58 56.30 57.22 56.94 56.02 55.46 54.51 52.62 49.82
57.52 57.59 58.26 58.50 59.58 59.74 58.78 58.74 59.68 62.32 63.61 62.10 61.91 60.43 60.39 61.05 60.14 59.13 58.85 58.27 58.17 57.33 56.65 57.54 55.94 57.08 57.95 57.51 57.32 57.32 57.05 56.87 56.52 56.83 57.79 53.06 56.22 56.59 56.39 56.12 55.68 55.57 55.29 53.22
57.00 57.82 58.18 58.46 59.05 59.72 59.45 59.42 60.23 60.40 62.54 63.67 61.35 61.97 61.09 60.50 60.24 59.28 59.51 58.37 59.44 58.11 57.73 56.35 56.30 57.64 58.20 57.16 55.14 57.88 57.44 58.05 57.12 56.64 55.96 56.61 56.61 56.51 55.94 50.98 55.57 55.49 55.35 55.11
55.88 57.45 57.79 58.40 58.95 59.81 60.58 60.85 59.30 61.00 62.92 63.85 62.20 61.50 60.59 60.09 59.87 59.25 58.56 56.89 59.52 57.06 57.98 54.22 58.37 58.43 58.85 57.85 56.65 57.67 57.82 57.38 57.43 57.26 55.98 55.39 55.32 56.77 55.68 55.90 55.13 54.97 54.70 55.30
56.14 56.58 57.36 57.94 59.53 60.42 61.42 61.23 60.88 61.93 62.79 63.84 62.40 61.21 59.69 58.99 59.54 58.94 60.63 57.16 57.79 52.02 56.09 56.35 58.57 53.52 55.61 54.98 58.11 56.89 57.78 57.21 55.93 55.91 56.13 56.27 55.51 55.46 54.98 54.86 54.34 55.16 55.42 55.43
53.97 56.01 57.18 57.99 59.43 60.75 62.02 62.02 62.08 63.11 62.91 62.36 61.12 59.37 59.66 59.26 60.49 58.09 56.56 59.71 59.51 55.12 58.02 55.30 50.67 51.17 52.28 58.29 56.79 53.15 51.84 54.55 54.69 54.67 54.34 54.03 54.18 54.93 54.47 54.01 53.38 53.48 53.69 53.81
54.00 55.71 56.70 59.64 62.04 61.71 60.14 62.10 62.57 62.72 62.39 61.87 61.82 61.82 60.96 60.54 58.11 56.87 56.09 52.60 50.10 53.32 53.91 52.82 50.91 48.94 50.72 53.88 53.00 52.51 52.35 51.17 48.91 49.76 50.04 47.44 53.05 53.48 53.36 53.11 52.52 53.06 52.98 51.81
55.17 56.54 56.90 57.18 56.74 56.63 57.23 57.03 56.19 55.75 55.85 56.65 56.35 57.14 57.34 55.77 54.54 53.04 54.60 53.98 49.29 52.45 52.36 48.09 48.74 49.67 52.62 51.99 51.66 51.24 51.31 51.25 50.82 50.52 51.57 52.24 52.79 52.58 52.56 52.30 52.22 52.39 52.38 52.69
55.27 55.59 55.87 56.19 55.74 56.28 56.19 56.35 54.16 53.56 52.86 51.33 51.32 51.55 51.82 51.70 52.29 52.99 52.47 52.63 52.89 50.97 52.67 52.78 52.32 51.94 51.76 51.77 51.67 51.54 51.66 52.62 52.21 52.92 51.45 52.97 53.16 53.28 53.18 52.90 52.62 52.32 52.59 51.99
54.98 52.95 56.97 54.64 55.97 56.02 54.98 53.53 53.46 53.63 53.76 52.42 50.03 51.38 51.58 51.45 50.86 50.97 50.07 52.42 52.92 52.62 53.53 53.45 53.01 52.20 53.20 53.93 53.32 53.42 53.53 52.43 47.07 51.77 52.50 52.43 52.30 51.89 51.43 51.45 51.26 50.82 50.03 48.73

GFSNGP_sfc_wetblb_024.txt.gz
Wetbulb
52.71 53.12 53.53 53.14 53.22 53.26 51.92 52.70 50.44 52.38 54.07 56.18 56.37 55.72 57.20 60.97 70.84 70.51 70.83 70.93 71.43 71.29 71.89 70.91 71.76 71.99 73.11 73.06 73.10 73.46 73.95 72.97 73.76 71.61 72.08 72.55 71.47 71.17 70.78 69.99 68.34 69.18 69.13 68.14
51.50 53.64 53.33 51.39 52.33 52.80 52.43 52.87 53.52 53.43 54.46 58.96 58.01 58.29 57.83 60.96 69.24 70.36 70.69 70.68 71.48 71.70 70.41 70.26 70.54 71.98 73.27 73.50 73.68 74.26 73.52 72.55 74.00 72.03 72.43 71.81 71.22 70.06 70.12 68.25 67.92 69.16 68.12 66.66
48.95 53.01 52.63 49.71 51.70 52.40 53.26 54.24 53.51 52.03 57.86 59.06 56.87 58.19 58.40 67.76 69.64 69.15 70.19 71.04 71.44 70.12 69.77 71.08 71.65 74.40 73.42 74.30 74.89 74.06 72.99 72.75 71.93 72.98 72.28 71.01 70.88 68.30 68.62 67.54 67.24 67.87 67.09 66.02
50.44 52.79 44.74 52.81 56.41 56.27 55.33 55.70 55.55 57.21 59.48 57.40 54.49 56.11 57.71 68.61 70.23 70.32 70.46 71.44 71.12 70.00 70.73 72.58 72.82 72.98 73.69 73.13 73.43 72.49 71.05 70.57 70.70 70.53 71.63 71.84 70.71 69.20 68.61 67.08 65.37 65.09 65.83 65.45
48.83 47.94 51.09 52.84 55.23 55.22 54.99 54.65 62.09 60.66 60.16 58.89 58.45 58.10 67.28 69.30 71.43 71.80 71.61 72.77 70.53 71.74 72.44 71.51 72.23 72.53 72.67 72.28 72.59 69.38 67.90 67.82 67.07 65.92 67.33 71.28 67.71 67.06 67.57 66.46 65.92 65.89 65.70 65.12
49.98 45.67 44.05 53.47 55.81 60.28 60.42 52.56 64.23 61.15 56.59 55.36 56.45 52.16 64.57 71.77 72.79 72.55 72.25 72.03 71.62 71.68 69.89 69.86 69.74 71.34 71.08 68.60 66.47 64.92 64.23 62.89 63.31 62.85 62.53 67.96 67.95 66.71 66.79 66.56 64.48 64.48 63.17 61.94
48.11 46.37 49.10 55.90 56.88 61.48 49.81 56.71 65.92 62.98 60.30 57.97 54.80 55.76 69.35 70.96 70.30 71.08 70.88 68.82 69.76 68.23 67.10 67.44 67.96 69.42 66.73 64.06 61.72 62.19 62.05 61.37 60.64 59.35 59.00 61.59 64.45 64.87 65.63 64.29 63.96 62.22 61.79 60.42
49.75 46.86 44.03 56.65 59.67 57.53 63.92 67.15 66.89 66.90 65.60 67.03 66.70 67.48 68.28 67.07 66.47 67.63 67.19 67.61 67.02 65.75 64.80 65.81 67.18 66.06 62.22 60.02 61.26 61.24 59.71 58.14 57.06 56.42 56.48 57.50 58.58 58.59 59.83 62.24 60.80 59.74 58.82 55.63
53.18 51.92 64.52 65.31 65.27 67.07 67.36 66.82 67.37 67.73 67.79 67.98 66.28 65.00 64.71 63.54 64.25 65.79 66.32 66.73 64.93 62.97 62.14 62.74 64.68 63.68 59.72 59.99 60.41 59.38 58.00 56.51 55.50 54.81 54.56 54.37 54.87 55.17 54.91 54.79 54.43 53.28 52.14 52.17
56.18 59.48 62.10 64.43 65.66 66.05 67.20 66.62 67.73 68.12 68.26 67.70 65.06 63.64 62.44 63.16 64.12 64.57 64.78 63.98 63.55 62.59 61.33 60.12 61.55 60.81 60.40 60.43 60.29 58.47 56.27 55.28 53.85 52.50 51.82 52.15 53.04 52.78 52.72 52.70 51.85 50.62 50.77 50.67
56.59 60.69 60.15 62.85 64.31 64.74 66.09 67.46 68.20 68.62 68.50 67.73 65.48 63.75 63.25 62.11 62.84 62.70 63.10 62.64 62.96 61.78 60.39 59.32 60.56 60.58 60.49 60.40 60.36 58.53 57.39 56.09 54.77 53.79 52.41 49.94 47.92 49.20 51.31 50.19 51.52 52.33 52.43 52.70
54.96 59.86 61.17 61.65 64.10 65.09 64.91 65.03 66.52 66.50 66.43 67.11 65.66 64.08 62.46 61.27 62.12 62.36 62.66 62.50 61.91 61.65 60.36 59.94 60.20 59.43 60.47 61.46 61.44 60.06 58.60 57.37 56.41 55.38 54.55 53.65 51.70 49.09 44.31 44.14 42.96 42.49 44.05 47.96
56.51 59.65 58.57 63.58 63.53 64.64 64.12 65.26 66.31 66.12 66.25 63.87 64.20 63.34 62.14 60.68 61.70 59.91 61.53 60.73 59.98 59.56 60.04 60.12 59.76 59.17 59.91 60.96 60.99 61.27 59.45 58.58 56.96 56.52 55.97 54.69 53.94 52.93 49.44 45.41 41.25 40.37 40.01 39.68
60.18 60.03 59.10 61.30 60.43 62.90 63.73 64.70 64.42 65.56 64.28 63.02 62.54 62.68 62.58 61.07 60.81 60.58 60.28 60.67 60.82 60.22 59.97 60.04 59.37 59.03 60.98 61.43 62.22 61.91 61.05 54.18 60.16 59.67 58.62 57.84 57.12 56.44 54.36 52.45 51.20 49.17 41.90 44.19
57.97 59.14 59.49 60.27 61.72 59.77 61.10 62.99 63.52 63.97 63.31 61.89 62.74 62.33 62.23 61.05 60.98 60.19 60.53 60.94 61.05 60.10 59.97 59.66 59.09 59.71 61.28 61.33 60.74 60.12 58.55 56.30 56.38 55.72 55.04 55.28 56.52 55.16 53.72 54.90 53.36 51.19 48.86 43.70
56.88 57.16 58.17 58.04 58.89 60.70 60.92 61.55 61.65 63.04 63.45 62.82 62.60 62.63 63.32 63.30 61.92 61.17 60.67 61.18 59.95 59.18 60.51 59.77 59.19 60.75 60.53 58.88 59.03 56.95 55.37 54.24 54.70 55.50 54.25 55.45 54.60 53.62 53.14 53.98 54.99 53.50 52.26 50.59
54.19 54.04 55.86 56.78 58.43 59.56 59.17 60.30 60.29 60.56 63.37 63.06 61.72 63.35 62.11 61.64 61.31 60.04 59.66 60.63 60.98 61.05 61.27 60.28 59.57 59.22 58.90 59.78 58.79 55.31 53.79 54.38 54.19 55.30 54.98 54.81 54.45 54.18 54.25 54.11 53.30 52.50 52.02 48.09
56.73 57.16 57.19 57.03 55.57 57.56 58.86 59.33 59.32 61.52 62.14 61.85 63.27 62.98 62.10 60.89 59.71 59.11 59.78 60.41 59.96 59.84 60.50 60.56 58.92 59.16 59.19 59.21 59.41 57.09 55.72 55.48 56.11 55.44 55.78 56.61 55.34 55.81 55.78 54.84 54.25 53.33 52.07 48.62
57.04 56.27 56.42 57.23 57.81 58.25 57.69 58.91 59.49 60.48 61.61 61.87 61.99 61.78 62.12 60.96 60.88 60.37 60.21 59.84 59.14 57.64 59.19 59.50 57.08 58.19 60.06 59.51 58.01 57.38 56.51 56.26 56.07 56.46 57.08 54.76 56.38 56.40 55.06 56.86 55.86 55.84 54.73 49.74
56.19 56.44 57.08 56.89 57.98 58.37 58.39 59.19 60.73 61.39 61.79 61.75 61.61 61.45 61.15 61.51 60.72 60.06 59.43 58.24 59.65 59.53 59.22 57.43 57.56 59.29 60.03 60.11 56.34 56.99 57.29 57.40 56.92 54.72 55.21 56.13 56.41 56.55 56.31 51.88 54.98 55.66 55.76 55.26
55.06 56.06 56.47 55.90 57.20 58.26 59.06 59.60 59.03 60.29 60.51 60.62 60.96 61.79 62.03 61.86 61.37 60.19 58.50 56.82 59.60 56.64 57.80 55.28 57.15 57.52 58.38 57.17 56.18 57.03 57.79 57.80 57.14 55.78 55.59 55.61 55.97 55.87 55.46 55.06 53.70 55.49 55.13 55.61
53.95 54.13 54.72 55.44 57.21 58.39 59.88 60.99 61.15 61.40 61.29 60.59 60.60 60.20 61.75 61.03 60.64 59.79 60.80 58.06 56.68 52.76 54.58 54.74 57.12 56.82 57.99 56.73 55.39 53.96 54.73 55.21 54.79 54.99 54.12 54.89 53.84 54.11 54.21 54.73 53.80 53.38 54.19 53.93
53.23 53.69 55.18 55.67 56.76 58.85 60.37 60.93 61.87 59.44 60.42 59.69 61.59 61.74 60.81 59.32 58.97 56.94 57.36 55.90 54.67 52.96 56.23 56.33 51.82 52.52 54.28 54.58 54.92 53.21 52.37 51.74 51.03 51.19 51.47 51.50 51.92 52.29 52.63 53.05 52.89 53.19 53.63 52.20
53.03 53.09 54.99 56.79 58.15 59.15 57.98 57.02 60.94 59.96 62.45 63.00 62.37 61.86 60.30 54.89 54.57 53.58 51.38 49.52 49.13 52.66 53.89 52.76 51.02 49.92 51.97 53.39 52.27 51.91 50.47 49.42 48.98 49.10 49.62 45.75 51.35 52.24 53.07 52.99 52.23 52.42 52.81 51.95
54.22 55.65 56.90 57.59 56.99 55.45 55.63 55.96 55.74 56.00 55.78 56.02 56.26 55.68 53.98 54.88 53.38 51.90 51.66 50.13 48.22 50.94 51.39 48.54 49.14 50.05 52.94 52.18 51.85 51.21 50.70 50.66 50.26 50.11 50.76 52.19 52.64 52.38 52.22 52.44 51.76 51.79 51.28 51.02
55.18 55.96 56.46 56.71 56.64 56.60 56.32 55.96 54.56 54.50 53.00 51.22 51.64 52.22 52.94 53.80 53.38 53.26 51.96 51.34 52.69 50.87 52.59 51.86 51.49 51.57 51.38 51.37 51.23 51.39 51.26 52.62 52.14 52.33 51.97 52.25 52.02 52.00 51.44 51.05 50.71 50.43 49.25 47.45
54.71 51.55 54.63 54.19 54.50 54.73 54.78 54.49 53.52 52.46 52.73 52.73 51.52 52.35 52.07 52.07 51.54 52.75 51.83 53.73 53.60 52.88 52.18 52.18 52.19 52.12 52.78 52.23 52.70 53.65 53.14 51.45 47.30 51.13 51.73 51.61 51.18 50.48 50.13 49.38 48.73 47.80 46.21 44.69

GFSNGP_sfc_wetblb_027.txt.gz
Wetbulb
49.73 50.72 50.35 50.17 51.26 52.02 48.42 48.33 44.32 45.94 50.14 52.13 53.82 56.92 58.45 58.71 60.99 60.32 61.38 67.12 66.83 67.52 66.92 67.35 66.73 65.43 65.26 68.53 69.77 69.81 70.71 69.60 69.18 69.47 69.38 68.51 67.37 66.64 65.94 65.39 64.80 65.04 63.36 62.16
48.02 51.81 51.13 50.07 51.49 51.99 50.80 50.09 48.36 50.71 51.86 53.57 56.24 56.99 57.99 60.44 61.24 60.95 60.25 67.42 68.54 67.93 67.14 67.10 67.61 67.81 69.81 69.79 70.07 70.06 69.13 69.87 69.67 69.39 68.17 67.18 66.53 66.26 65.23 65.34 65.68 63.99 61.99 60.88
42.90 50.94 49.97 45.38 49.87 51.17 51.24 53.29 51.66 45.57 51.75 56.12 55.12 57.83 57.90 58.62 58.72 61.36 61.18 67.69 67.41 66.44 66.27 65.77 66.11 68.78 69.40 71.01 70.47 69.90 69.73 70.11 69.16 69.03 67.94 67.80 67.02 66.62 65.13 64.10 64.83 62.46 61.15 59.82
45.18 48.00 39.57 48.82 53.92 53.88 53.75 57.27 56.73 54.88 55.17 55.51 55.31 56.64 57.46 59.66 59.05 60.27 58.38 68.28 66.46 66.50 66.90 67.36 69.01 70.06 69.54 69.84 69.47 68.26 67.13 66.39 65.74 65.87 66.32 67.18 67.00 66.39 64.87 64.40 63.38 62.40 60.83 57.95
42.08 42.10 47.53 50.53 53.33 53.06 51.97 54.01 57.97 56.49 57.09 57.34 58.19 56.68 56.91 59.73 65.26 58.98 66.59 66.98 66.37 67.26 68.48 69.01 68.59 69.37 68.86 66.63 65.71 64.00 62.43 62.13 61.68 62.15 62.69 65.71 66.55 65.83 64.98 63.80 63.38 62.19 62.10 59.21
43.10 40.07 38.91 48.07 55.97 58.67 57.13 50.83 57.45 56.37 57.12 54.74 56.89 50.72 53.23 62.20 67.75 67.51 67.13 67.11 67.51 67.20 66.39 65.79 66.37 65.41 63.29 62.05 60.75 60.00 60.31 59.92 58.98 58.89 60.81 65.29 66.39 65.94 64.60 64.21 62.87 60.19 58.25 55.88
43.14 41.31 45.18 51.79 53.87 57.84 44.45 49.49 57.40 57.64 57.19 55.46 53.27 55.98 60.18 64.73 66.24 66.62 66.35 65.32 65.14 64.64 64.09 64.69 65.13 62.73 60.32 59.14 58.36 58.70 57.96 57.18 56.88 57.38 58.01 60.38 63.05 64.62 64.15 62.61 60.21 58.99 56.75 53.23
42.60 40.79 39.84 60.73 59.69 54.73 54.33 56.50 62.14 59.31 58.56 59.91 58.92 62.21 64.26 64.86 64.68 64.28 64.21 63.61 63.86 62.40 61.72 63.23 61.65 60.10 58.14 57.60 58.20 57.26 56.14 55.76 55.18 55.06 55.74 57.32 58.04 58.59 61.16 60.75 59.17 56.80 53.14 50.68
45.37 44.98 60.40 62.82 61.76 62.61 63.01 62.14 63.03 62.20 64.21 64.19 62.05 61.80 61.81 62.62 63.89 64.80 62.95 62.09 62.05 60.92 60.11 61.30 59.67 58.65 56.96 58.24 57.90 56.59 55.23 53.97 53.33 53.49 53.62 54.19 54.99 55.25 55.31 55.37 54.35 52.56 51.65 49.82
51.13 56.34 57.58 59.01 59.99 61.52 64.31 63.91 64.10 66.40 65.23 62.83 60.99 60.41 60.99 61.79 62.88 62.75 62.01 60.98 60.83 59.65 58.99 58.45 59.12 57.92 58.18 58.35 57.27 55.90 53.86 52.54 52.15 51.38 50.78 52.00 52.20 52.54 52.88 52.58 51.67 51.31 50.57 50.02
54.27 56.22 58.69 57.32 57.57 60.02 62.58 65.58 65.72 65.21 64.76 62.55 61.18 60.09 60.97 61.33 61.08 61.41 61.29 60.97 60.04 57.97 58.15 58.10 58.73 59.19 60.11 59.29 57.36 55.03 53.95 52.45 51.13 49.60 47.54 47.65 46.55 48.18 50.20 47.74 50.33 51.70 51.64 51.96
50.11 55.33 56.86 57.51 59.14 61.99 62.09 63.42 64.46 64.03 62.82 63.31 61.96 60.31 60.43 60.75 61.31 61.29 60.49 60.89 59.05 57.77 58.48 58.85 58.56 58.19 58.83 59.23 57.31 55.25 53.33 52.56 51.43 50.17 49.29 48.37 47.04 45.31 44.69 44.08 43.35 42.34 43.48 47.43
53.95 57.02 58.87 59.31 60.86 61.24 62.11 64.23 64.76 63.43 62.36 60.85 61.07 60.31 59.99 60.17 60.64 59.49 60.48 59.50 58.68 57.86 58.04 58.37 56.63 57.25 57.78 59.35 58.91 56.63 53.08 52.86 52.35 51.88 51.09 49.87 48.27 45.88 43.57 42.65 41.79 40.95 40.14 40.22
56.85 56.76 57.16 60.35 57.78 61.15 59.44 64.41 63.19 62.81 62.00 60.87 60.47 61.44 60.68 60.30 59.53 59.84 58.94 58.70 58.50 58.05 58.23 58.01 57.73 57.69 59.40 59.05 57.75 56.17 55.34 53.85 53.07 52.78 52.21 51.15 50.82 49.30 46.58 44.09 43.07 41.83 40.50 40.88
56.43 56.44 55.25 56.19 59.07 59.29 60.00 58.41 61.06 60.62 60.32 59.96 60.56 60.99 60.57 59.67 59.45 58.93 58.95 59.03 58.82 58.33 58.44 57.77 57.42 57.36 58.79 59.24 58.15 56.82 55.42 51.77 49.40 48.63 50.02 51.23 52.09 51.49 49.46 48.33 45.78 43.86 40.20 40.00
54.72 55.31 54.91 55.19 55.62 56.99 58.61 59.58 59.22 60.82 60.94 60.22 60.20 59.92 60.68 60.68 59.43 58.31 58.76 58.74 57.54 56.99 57.71 57.84 57.94 58.50 59.59 56.23 53.07 49.21 48.77 51.80 49.82 47.65 46.42 47.72 47.38 46.58 46.55 47.15 45.95 44.38 42.53 41.58
51.12 51.07 52.92 53.00 54.14 55.15 56.19 56.21 57.67 57.55 59.95 60.36 60.59 61.03 61.76 60.05 58.69 56.88 58.48 59.04 59.35 58.82 58.56 57.82 57.58 55.09 54.04 52.96 51.66 48.42 48.00 47.92 51.78 48.53 48.78 48.40 48.13 47.43 47.14 46.59 46.22 46.80 46.46 45.03
54.74 54.59 53.93 53.00 53.22 54.64 55.06 55.95 55.72 58.46 59.09 60.66 60.68 60.66 60.08 59.52 56.86 56.43 57.09 58.17 58.26 58.01 58.12 56.99 55.02 54.46 53.92 53.63 50.32 49.71 49.73 49.39 49.17 49.16 49.59 49.67 48.95 48.89 48.75 49.24 47.41 46.01 44.02 43.75
55.44 54.90 55.08 55.28 55.03 55.23 55.09 56.00 56.49 57.86 61.09 60.86 60.47 59.23 59.58 58.68 57.75 57.42 57.16 56.39 56.02 56.49 55.67 54.60 57.20 55.57 54.60 54.66 53.40 51.40 50.41 50.92 50.34 50.91 51.16 50.98 50.64 50.84 50.96 51.72 50.99 49.97 47.16 43.29
54.29 54.97 55.21 55.42 56.30 55.44 55.28 56.89 56.64 57.62 60.90 60.11 59.23 58.38 58.27 58.62 58.78 58.14 58.17 56.99 56.47 56.10 55.21 53.64 52.79 52.94 54.29 54.18 54.56 50.98 53.93 53.06 52.42 51.99 51.87 52.02 52.47 52.38 51.84 48.72 50.02 49.76 47.92 44.94
52.75 53.23 52.84 53.28 54.48 55.59 56.23 57.51 57.46 56.11 60.20 59.79 58.18 57.27 57.62 59.49 58.76 58.30 56.33 55.01 56.51 54.07 52.08 53.91 53.05 54.45 53.99 53.48 51.92 52.34 53.86 53.19 52.27 51.26 51.42 51.93 51.18 49.95 50.94 49.99 49.18 48.26 50.69 49.42
53.66 52.51 52.15 52.37 53.11 54.58 56.59 57.46 56.59 57.56 59.58 59.71 59.67 59.39 58.33 58.52 58.73 58.11 58.22 54.88 53.23 51.44 51.09 50.67 52.56 55.07 53.83 53.37 50.53 50.43 50.72 51.26 50.77 50.27 49.43 50.09 49.68 48.74 48.75 48.47 46.94 47.30 48.40 48.51
52.31 52.29 52.48 52.38 52.47 53.64 55.80 56.14 57.33 56.53 58.17 58.04 55.89 55.32 56.60 57.98 58.16 56.84 53.61 53.93 53.49 51.47 51.34 51.45 51.48 52.77 53.24 50.39 50.28 49.53 50.16 49.95 48.87 49.08 49.58 49.14 49.08 49.80 49.75 49.41 49.06 48.97 48.25 47.29
52.18 52.95 52.88 53.29 53.38 54.35 54.49 53.23 54.27 55.20 56.82 56.56 58.62 58.45 56.70 52.99 50.99 52.28 50.81 48.64 48.58 50.18 50.03 49.81 49.31 49.86 50.47 51.09 50.53 50.10 48.87 48.65 48.56 48.65 48.95 45.39 49.11 48.61 47.80 47.99 47.79 47.45 46.46 44.88
52.91 53.50 53.79 54.57 54.63 54.65 55.52 55.01 54.77 54.63 54.40 54.13 54.35 53.59 53.19 53.55 49.99 49.03 49.87 49.72 48.20 49.97 49.84 48.44 48.96 49.55 51.13 50.88 50.73 50.48 49.69 49.35 48.49 48.38 48.25 47.95 47.66 47.57 47.54 46.97 46.33 44.80 44.01 43.13
53.67 54.19 54.39 55.58 55.41 55.11 54.91 54.39 52.50 52.34 52.14 51.45 52.18 52.48 52.51 52.65 52.20 51.81 51.23 50.33 51.39 50.12 51.19 50.99 51.09 51.21 51.11 51.08 50.46 50.19 49.20 49.17 47.97 47.68 47.34 47.65 46.91 46.53 46.17 45.50 44.11 42.90 41.04 39.88
53.62 51.02 53.31 53.06 53.89 54.18 53.72 52.73 52.08 51.98 52.08 51.31 50.62 52.14 52.13 51.85 50.97 50.91 50.06 51.36 51.61 51.36 50.76 50.77 50.72 50.93 50.62 50.75 49.98 49.93 49.40 45.90 44.17 47.09 46.58 46.12 45.32 44.53 43.93 43.04 42.32 41.13 39.75 38.99

GFSNGP_sfc_wetblb_030.txt.gz
Wetbulb
45.30 48.72 48.37 48.45 48.99 49.40 46.12 45.41 42.72 46.50 46.22 50.11 52.71 53.49 57.43 57.00 57.23 57.79 58.02 60.20 64.58 64.00 64.45 63.63 61.49 61.77 63.04 64.01 65.14 68.83 68.24 67.59 68.16 67.32 66.18 65.63 65.12 64.51 63.64 63.59 63.38 61.57 60.37 59.41
43.20 50.73 49.92 48.63 50.13 50.34 49.89 51.24 47.32 49.04 48.60 52.15 54.73 54.28 57.67 57.83 60.09 60.41 61.84 65.45 65.27 66.29 65.54 64.80 64.84 63.61 63.37 64.30 67.47 68.80 68.35 67.98 68.42 67.74 66.89 65.54 64.78 64.13 63.61 63.70 62.05 60.31 59.06 58.38
38.21 48.05 48.68 43.25 47.99 48.97 51.07 53.52 50.84 45.16 48.99 53.42 54.29 54.66 54.42 57.28 58.93 59.60 60.76 66.42 65.75 66.63 66.74 66.37 65.94 66.58 66.56 67.37 68.63 68.76 68.61 68.17 67.82 67.43 66.99 65.45 65.00 64.59 63.94 63.02 61.43 58.92 58.07 56.41
42.27 45.25 36.89 47.14 52.55 56.79 54.64 55.30 54.99 54.04 53.94 53.66 54.07 55.01 57.13 59.46 58.25 60.13 60.59 65.02 66.13 66.40 65.49 65.08 67.17 68.24 68.66 69.04 67.57 65.39 64.32 64.16 64.42 65.52 66.04 65.88 65.41 64.58 64.11 63.44 61.88 58.52 57.65 53.88
39.86 38.55 43.97 48.18 54.09 52.43 50.77 51.64 55.98 55.58 56.52 57.11 58.06 56.08 54.89 58.43 60.40 58.61 61.78 64.20 66.54 66.16 66.02 67.43 67.21 66.76 65.01 63.85 63.61 62.95 61.42 61.18 61.31 61.63 62.39 66.62 66.02 64.12 64.10 62.62 61.93 60.20 57.52 53.86
39.26 36.88 36.81 45.71 54.34 57.17 55.92 47.37 56.72 56.69 56.88 56.82 57.19 50.20 53.35 57.43 65.71 66.05 65.47 65.89 66.60 66.40 66.60 66.02 63.96 63.62 62.40 61.37 60.62 59.60 59.08 58.60 58.42 60.25 61.52 65.67 65.56 63.56 64.18 63.45 59.83 58.52 55.29 53.51
38.70 37.77 42.28 49.64 51.85 55.85 43.20 44.66 56.67 56.87 57.02 56.93 54.87 55.40 55.92 62.10 64.30 64.27 64.47 63.57 63.79 63.42 62.86 61.61 61.82 62.32 60.18 58.86 57.75 57.43 56.77 55.85 56.15 57.35 58.58 61.68 64.54 64.77 62.85 59.94 58.08 54.93 52.51 51.07
38.56 37.30 37.14 57.82 58.67 49.56 52.31 56.49 56.76 57.76 57.87 57.57 58.05 59.98 63.40 63.72 60.68 61.90 61.70 61.63 61.18 60.56 59.92 59.74 59.45 58.79 57.37 56.61 56.17 56.33 56.15 55.99 54.67 55.05 56.05 57.65 60.17 61.64 60.76 59.25 56.29 53.26 51.42 50.57
41.53 41.22 53.74 57.33 57.29 58.15 58.09 58.75 59.40 58.24 59.60 59.94 60.50 61.65 61.77 61.29 59.76 59.63 60.47 61.04 60.73 60.11 58.78 58.46 58.49 57.91 56.45 55.80 54.66 54.10 54.53 54.25 53.22 52.96 53.81 54.48 55.82 56.61 56.25 55.89 54.30 52.55 51.01 50.14
49.54 53.80 53.59 55.61 58.84 60.36 62.10 62.44 63.12 61.58 60.80 62.50 60.98 60.39 59.37 59.76 59.07 58.83 59.26 59.23 58.76 59.07 58.61 58.08 56.37 56.59 56.29 55.39 55.79 54.07 54.29 52.03 51.79 51.25 50.34 51.76 52.61 53.49 53.81 53.31 52.63 51.68 50.68 50.32
49.78 53.10 55.45 56.22 57.18 58.78 62.43 64.32 63.92 63.65 63.09 62.05 60.90 59.85 59.37 59.29 60.03 60.69 60.22 59.78 57.86 56.91 57.47 57.63 57.55 57.73 57.87 56.39 55.30 53.54 52.18 51.32 50.07 49.06 49.14 48.17 46.94 48.80 50.00 48.48 51.24 51.85 51.72 51.89
47.78 52.79 53.80 55.49 56.61 59.21 59.85 63.32 63.24 62.52 61.52 61.59 60.49 59.38 60.06 60.45 59.43 59.79 59.37 57.37 57.84 57.90 58.07 57.87 58.12 58.03 58.44 55.57 53.62 51.59 50.05 48.88 47.68 46.99 46.31 46.99 47.36 45.35 45.06 44.45 43.36 43.21 45.74 47.37
51.27 54.43 54.95 57.37 60.61 61.02 60.25 62.91 63.00 61.66 61.24 60.11 59.08 58.84 58.60 59.90 60.59 59.39 59.83 58.88 57.88 57.44 58.25 57.78 57.60 57.60 58.41 56.13 54.39 52.12 50.91 49.88 48.82 48.28 46.94 45.51 44.37 44.37 43.88 43.02 41.85 40.75 40.56 42.18
52.40 52.92 52.79 56.29 54.84 58.43 62.71 62.96 62.19 61.78 60.85 59.87 58.65 58.47 58.83 60.02 59.78 59.52 58.64 58.73 58.33 57.97 57.84 57.42 57.29 57.21 58.39 58.67 56.27 52.84 51.59 51.16 50.30 49.51 48.46 47.01 46.06 44.74 43.28 42.65 42.09 41.59 40.68 39.78
51.80 52.58 53.11 52.22 54.07 55.56 58.96 60.58 59.85 58.90 59.24 59.01 58.92 58.21 58.28 57.84 58.88 59.07 58.99 59.01 58.38 57.67 57.33 57.60 57.24 57.42 58.79 56.64 55.08 53.31 52.96 52.19 51.51 50.94 49.77 49.28 48.31 46.58 44.84 44.13 42.54 41.70 39.61 39.70
50.78 52.05 52.26 51.90 51.70 53.36 55.17 57.38 56.99 58.65 58.92 58.56 58.23 58.50 58.71 59.05 59.68 58.60 58.52 58.43 56.92 56.48 57.13 56.98 56.72 57.58 58.19 55.97 54.55 52.22 52.98 53.04 50.67 46.58 48.08 49.36 50.33 48.63 47.25 46.59 43.66 41.93 40.35 39.82
48.25 47.27 48.70 48.83 50.08 51.12 51.71 53.51 53.83 55.26 58.68 58.28 58.80 59.17 58.61 58.77 58.25 57.38 57.60 58.10 57.95 57.66 57.71 57.48 57.31 58.21 56.52 54.14 50.24 45.43 45.78 45.93 49.69 46.90 45.65 45.92 49.24 46.61 48.11 46.51 44.82 43.16 42.14 41.92
51.06 50.56 50.57 49.96 50.13 50.37 51.46 52.48 54.10 55.28 56.31 58.41 59.29 58.71 58.00 57.50 56.97 56.42 56.38 57.86 58.02 57.50 57.41 57.64 56.33 54.10 52.81 51.32 49.02 46.13 46.23 46.84 47.35 46.47 47.64 46.65 46.19 45.82 45.08 45.19 45.45 45.46 44.40 43.40
52.01 51.31 51.57 52.18 52.23 51.56 51.70 52.66 52.99 55.10 59.10 60.31 58.21 57.07 57.79 57.09 57.00 55.87 55.89 56.79 56.39 55.68 55.35 54.51 56.14 53.69 52.20 52.97 50.28 48.42 47.63 48.36 49.80 49.62 49.95 48.72 48.82 48.99 47.26 47.58 47.79 46.13 45.17 43.60
50.78 51.21 51.07 50.94 51.81 52.40 52.50 53.50 54.65 54.59 56.47 58.43 57.12 56.51 55.93 56.11 56.73 56.94 55.72 55.62 56.67 56.53 54.97 53.69 53.48 52.56 53.02 52.04 53.22 51.12 51.71 50.98 50.50 48.87 49.39 51.05 49.62 50.04 47.74 46.36 47.29 46.70 44.41 42.91
50.42 50.98 50.44 50.34 50.30 51.29 53.12 53.95 54.00 54.35 55.34 57.46 57.03 55.47 55.95 56.69 56.85 57.55 56.34 55.45 56.74 54.79 53.47 53.87 51.81 51.90 50.55 50.32 52.55 51.87 51.02 49.29 49.02 47.83 47.50 47.57 48.43 48.28 48.16 45.40 44.76 47.09 47.06 46.79
49.14 49.91 50.42 50.17 49.81 50.08 52.12 53.57 54.66 54.90 55.00 55.67 56.43 55.97 55.57 56.51 56.17 55.75 57.57 56.59 55.59 51.43 51.12 50.92 51.38 52.19 50.75 50.99 48.39 48.40 48.58 48.35 47.66 47.91 49.07 49.01 48.47 49.04 48.08 47.61 47.17 47.12 46.10 45.49
48.99 49.54 49.87 49.39 49.20 49.04 50.54 52.53 52.34 53.38 53.66 53.82 56.01 55.77 56.31 56.93 56.79 55.73 54.52 53.90 51.45 49.61 49.25 49.33 51.36 50.90 50.48 49.04 48.51 48.72 49.03 49.41 49.35 48.98 48.18 47.42 48.01 48.02 48.56 47.85 46.92 45.97 44.67 43.02
52.08 50.43 51.45 52.36 52.39 50.70 49.11 50.81 50.88 51.34 51.95 55.49 55.57 53.70 53.11 53.55 51.14 53.06 51.24 49.13 48.19 49.69 49.97 50.34 49.56 49.09 49.29 48.35 48.70 49.23 48.79 48.71 48.38 48.46 48.14 45.64 48.16 47.98 47.08 45.63 43.48 42.20 41.02 40.61
52.40 51.00 49.46 50.00 49.63 50.28 52.44 53.09 52.91 51.69 49.80 51.78 52.11 51.61 51.39 51.39 50.86 50.24 49.26 49.15 47.62 49.29 49.20 48.16 48.46 48.87 49.89 49.77 49.40 49.17 48.94 48.68 48.02 47.94 47.44 46.59 45.63 44.11 43.52 42.85 41.50 40.14 39.00 37.76
52.32 50.46 53.69 54.56 54.07 54.22 53.54 52.33 51.30 51.24 51.09 50.34 50.60 51.12 50.95 51.26 51.13 51.03 51.14 50.24 50.33 48.94 49.81 49.82 49.70 50.77 50.79 50.19 49.67 49.04 49.19 48.67 47.03 45.49 44.49 44.34 43.45 42.70 41.81 41.04 39.36 38.46 37.41 36.45
52.75 50.33 52.87 52.59 52.95 52.71 52.37 51.90 51.43 50.74 51.12 51.17 50.32 51.48 51.04 51.04 50.32 50.19 49.48 50.43 50.27 50.27 50.41 50.56 50.77 50.40 50.00 49.28 48.44 46.27 43.82 44.11 43.90 44.74 43.67 42.69 42.02 41.40 40.76 39.73 38.77 37.73 36.20 35.45

GFSNGP_sfc_wetblb_033.txt.gz
Wetbulb
42.88 47.12 47.40 46.92 47.67 47.59 43.53 42.61 41.08 42.80 43.02 45.94 51.39 53.26 55.94 55.56 56.54 57.92 58.48 59.73 62.00 64.14 64.14 64.04 62.62 63.03 63.09 62.40 65.76 66.79 67.09 66.57 66.03 64.80 64.94 64.90 64.37 63.72 63.02 62.70 61.08 59.76 58.75 58.03
41.84 48.76 48.66 47.29 48.34 48.99 49.21 50.53 46.66 47.41 46.00 50.90 52.28 54.01 55.88 56.03 57.85 59.02 60.00 61.78 64.09 64.75 65.02 64.66 62.92 61.64 63.24 62.60 64.73 66.35 67.55 66.52 66.83 65.23 65.23 65.10 64.11 62.88 62.56 61.01 59.47 58.95 57.33 56.25
37.36 46.67 46.08 40.89 46.84 48.54 51.53 52.43 49.99 43.27 47.40 52.28 51.29 54.11 55.19 55.98 57.18 57.72 59.86 61.57 64.38 60.91 65.14 64.98 65.31 64.78 62.11 62.28 65.81 67.10 67.67 67.61 67.28 66.38 65.18 64.57 64.22 63.58 62.81 61.11 59.90 57.81 55.79 54.29
39.97 41.22 34.61 44.34 55.19 54.17 53.57 54.28 53.58 51.54 52.09 53.25 52.48 53.24 54.99 56.95 58.48 59.48 59.06 61.72 63.44 60.80 66.05 66.09 66.79 66.06 65.95 65.52 64.72 64.91 65.09 65.54 66.39 66.53 65.52 64.36 64.16 63.51 62.92 61.55 59.67 57.98 54.56 53.24
38.71 37.14 41.73 49.00 54.11 50.46 48.67 50.57 55.46 53.23 54.53 55.79 56.04 55.24 54.70 58.91 60.07 59.11 59.88 61.88 64.71 65.31 65.44 66.92 65.81 64.89 64.56 64.31 63.73 62.70 61.64 61.19 61.48 63.29 64.47 65.27 64.43 63.82 63.24 61.32 59.50 57.44 55.01 53.39
37.73 35.87 35.70 43.94 52.13 56.70 52.43 42.72 56.44 56.22 54.35 54.90 55.81 49.55 53.29 59.19 64.52 64.96 64.62 63.75 63.75 64.97 65.74 65.45 63.98 64.83 65.43 64.75 63.51 60.35 59.14 59.55 60.83 60.67 61.95 64.33 65.57 63.95 63.15 61.75 58.72 56.35 53.81 52.60
38.02 36.64 41.08 47.44 53.75 54.13 40.05 41.79 55.87 56.61 55.35 55.02 52.69 54.05 56.39 61.72 62.07 63.53 63.10 62.80 63.16 62.76 62.30 62.04 61.17 62.25 61.93 60.61 59.46 58.72 57.64 58.06 58.68 59.16 60.23 63.73 64.12 63.37 60.39 58.48 54.87 52.42 51.20 50.45
36.36 35.03 35.37 57.27 57.98 47.50 48.20 53.90 55.23 55.77 55.01 55.27 56.11 61.23 62.62 61.62 61.76 61.69 60.73 61.14 61.27 60.03 59.25 59.11 58.20 59.32 59.09 56.13 56.09 56.51 55.71 55.99 56.57 57.46 57.30 59.69 63.14 61.08 59.22 56.45 53.40 51.41 51.15 50.70
39.80 39.72 52.63 55.70 55.52 56.51 55.22 56.73 57.09 56.16 56.93 57.89 58.55 59.72 61.63 61.34 60.61 60.75 60.93 60.80 61.09 58.56 57.28 57.50 58.60 58.00 56.47 55.04 54.87 55.79 55.41 54.34 55.33 54.45 54.57 56.05 58.56 58.77 56.98 55.51 54.06 52.31 51.37 50.83
48.53 51.49 52.46 54.94 58.14 60.92 61.55 60.15 62.50 60.22 59.48 60.55 58.35 60.76 60.28 60.19 58.78 59.44 59.43 59.02 59.46 59.33 57.70 56.87 57.24 56.77 55.69 55.71 55.73 57.40 55.85 55.53 52.70 52.07 51.91 53.19 53.98 55.00 55.11 54.20 53.12 52.01 50.93 50.73
50.62 52.21 53.47 54.94 56.09 57.83 60.66 60.68 63.04 62.46 61.46 61.26 60.59 59.93 59.94 59.16 58.58 58.61 59.23 58.43 58.44 57.84 57.14 56.39 56.96 56.39 56.19 57.54 55.57 54.35 54.46 51.99 50.60 50.54 50.19 48.77 47.40 49.62 51.07 49.95 52.35 52.51 51.82 51.63
46.41 51.80 52.06 53.38 56.90 59.25 60.75 61.93 62.17 61.50 60.91 61.74 60.87 59.58 59.66 58.92 58.50 59.94 58.82 57.85 57.51 57.67 57.48 57.50 57.96 57.52 54.73 54.03 53.03 51.79 49.29 48.59 48.72 49.13 49.01 49.08 47.31 45.14 45.04 44.29 43.46 45.28 46.46 48.04
50.37 52.71 54.79 57.55 59.48 59.75 60.85 62.45 62.79 62.09 61.17 60.21 59.62 59.69 58.34 57.91 58.23 58.70 59.14 58.26 57.56 57.46 57.84 57.68 57.58 57.47 56.73 52.85 51.48 49.72 47.96 46.86 46.64 46.28 45.41 44.66 44.56 44.89 44.43 43.99 41.95 40.43 41.00 42.91
53.39 52.98 53.25 55.08 54.40 59.61 61.89 62.72 61.20 61.40 60.59 60.17 59.09 58.95 58.06 57.85 57.44 58.23 58.81 58.83 58.15 58.12 57.57 57.45 57.21 57.07 57.90 54.00 51.98 50.49 49.00 48.76 47.02 46.35 45.79 44.69 44.42 43.65 43.34 43.36 42.88 42.06 41.17 40.16
50.45 50.91 52.55 52.28 54.39 56.30 60.19 61.02 59.28 59.18 59.17 58.92 59.34 57.79 57.74 57.31 57.37 58.05 58.31 59.22 58.31 57.83 57.51 57.25 56.83 56.93 58.38 57.99 53.78 51.50 50.43 49.49 48.68 47.65 46.73 46.05 45.00 43.82 43.04 42.62 41.68 41.01 39.84 40.20
50.14 50.47 50.46 50.05 50.51 53.02 55.77 57.58 55.55 57.23 57.76 57.50 57.62 57.78 58.00 57.92 57.27 57.75 57.53 58.14 56.61 56.11 56.85 57.00 57.08 57.75 58.21 55.32 53.54 52.04 51.68 52.18 50.58 48.90 47.99 47.18 46.51 45.27 43.87 43.40 41.96 40.87 40.17 39.30
47.38 46.48 46.98 48.00 49.18 48.74 49.84 52.15 51.99 53.29 58.07 57.35 57.50 57.78 57.69 57.27 56.67 55.76 56.39 58.08 57.74 57.51 57.32 57.16 57.08 57.75 57.51 55.46 54.35 52.85 51.41 51.48 51.37 48.41 50.08 49.52 49.22 48.21 46.68 46.01 44.26 42.58 41.65 41.40
49.64 49.30 49.09 48.85 49.08 49.53 50.46 51.43 51.95 52.53 54.54 58.50 58.66 57.73 57.27 56.65 55.95 55.18 55.80 57.49 57.20 57.14 57.41 57.83 57.81 57.65 56.01 53.21 49.11 45.16 45.02 45.01 46.66 46.50 45.63 45.71 47.80 48.04 47.54 48.43 47.23 45.62 43.72 42.40
49.86 49.27 49.47 50.52 50.79 50.48 50.45 51.56 52.58 52.54 53.39 56.09 56.90 56.49 57.17 56.95 55.72 55.36 56.67 56.73 56.26 56.15 56.73 56.07 57.19 53.35 50.52 51.57 49.32 44.78 45.59 47.53 48.15 45.98 46.51 46.52 45.60 45.05 45.33 45.34 45.80 45.10 44.64 43.84
50.03 50.54 49.60 49.50 50.19 50.20 50.86 52.53 53.69 53.30 54.00 55.34 56.03 55.48 54.89 54.73 54.69 54.83 54.83 54.38 56.55 57.46 56.69 54.83 51.72 50.10 51.61 52.73 53.73 48.96 50.02 49.72 48.13 47.29 47.59 47.12 47.23 47.37 45.27 43.34 45.82 44.43 42.54 41.80
48.05 49.17 49.78 50.04 49.28 49.96 50.22 51.97 52.86 53.11 53.90 53.84 54.44 54.20 54.54 54.31 54.69 54.76 53.48 54.79 56.36 56.13 54.60 54.16 50.37 50.63 49.00 50.51 52.08 49.62 48.70 48.18 47.40 46.13 45.49 45.02 45.23 44.66 44.03 44.69 44.93 46.73 46.32 45.64
47.54 48.08 48.93 49.53 49.34 48.90 49.81 50.36 51.40 53.13 52.76 53.04 53.59 54.68 53.98 53.54 54.71 54.07 54.52 55.04 54.63 51.36 52.21 51.69 52.45 52.54 51.34 51.37 47.88 47.29 47.41 47.59 46.79 46.64 46.69 46.65 46.33 46.69 45.13 45.68 46.25 45.81 44.89 44.15
46.98 47.74 48.50 48.55 48.40 48.13 48.46 49.04 49.98 51.78 51.55 52.27 52.73 53.64 53.87 55.05 55.71 54.57 54.18 55.51 55.71 52.75 53.22 51.65 51.31 51.23 50.57 47.45 47.60 47.72 48.10 47.98 47.37 46.73 45.41 46.60 48.05 47.94 47.19 46.44 45.63 44.71 43.32 42.46
48.16 50.26 51.73 51.66 52.22 50.59 48.55 49.30 49.51 49.57 53.43 54.33 54.04 51.83 52.88 54.40 52.87 51.23 52.81 52.56 51.05 49.89 51.04 50.49 48.94 48.81 48.64 48.45 48.41 47.87 47.80 47.42 45.94 45.77 46.49 44.50 47.19 46.36 45.24 44.26 42.98 41.75 39.09 37.88
51.97 51.67 48.23 48.82 48.14 47.94 50.82 51.73 51.48 49.80 50.36 50.98 51.61 51.61 50.65 50.74 50.41 48.32 51.73 50.91 48.89 49.23 48.75 47.71 47.89 48.09 47.91 47.65 47.98 47.17 46.79 47.16 46.91 46.32 45.57 45.81 44.26 41.64 41.04 40.27 39.38 38.27 37.45 36.43
51.93 50.04 52.99 53.50 53.57 53.30 52.33 51.60 49.85 50.30 50.03 49.71 50.28 50.80 50.26 50.74 50.20 50.92 50.82 49.48 49.61 48.39 49.21 49.47 49.81 49.89 49.28 48.13 48.55 48.42 48.44 47.29 45.89 45.55 44.32 42.41 41.46 40.62 39.80 39.05 38.12 37.08 35.89 34.94
52.39 49.81 52.41 52.03 52.21 51.83 51.69 51.38 50.78 50.28 50.68 50.44 49.51 50.62 50.80 50.07 49.64 49.58 49.22 50.15 50.03 50.15 50.78 50.88 50.67 49.37 49.07 48.60 46.91 46.49 46.21 45.33 42.15 42.32 42.07 41.61 40.84 40.03 39.12 38.06 36.97 35.99 34.31 33.37